[{"header": {"dx": 0.06612293990616946, "dy": 0.0552356325346848, "nx": 98, "ny": 59, "la1": 35.046912555036876, "la2": 31.78801023549047, "lo1": -121.43107172385933, "lo2": -114.95102361305473, "refTime": "2026040720", "parameterCategory": 1, "parameterNumber": 2}, "data": [8.24, 8.56, 8.56, 8.85, 8.85, 9.08, 9.37, 9.3, 9.5, 9.76, 9.48, 9.01, 10.18, 9.49, 8.77, 8.9, 8.44, 4.11, 0.0, -1.73, -3.2, -4.56, -4.19, -3.91, -4.43, -4.89, -4.43, -3.91, -3.91, -2.99, -2.16, -1.99, 0.0, 0.0, 1.05, 2.16, 2.8, 2.8, 3.91, 4.89, 5.21, 5.95, 6.98, 7.56, 9.09, 9.4, 10.01, 10.01, 9.4, 8.06, 7.76, 6.57, 5.26, 4.02, 3.35, 3.72, 4.4, 4.82, 4.82, 4.92, 4.92, 4.02, 3.58, 3.58, 3.9, 4.34, 4.77, 4.92, 4.92, 4.47, 3.58, 3.13, 3.13, 3.13, 2.68, 2.68, 1.9, 1.2, 0.0, 0.0, 0.0, 0.0, 1.6, 2.53, 2.8, 3.58, 4.92, 5.81, 5.81, 4.4, 1.05, -0.0, -0.0, -0.0, 0.96, 1.05, -0.0, -0.96, 8.24, 8.24, 8.56, 8.56, 8.85, 9.42, 9.37, 9.37, 9.3, 9.38, 8.96, 10.0, 9.36, 9.33, 9.54, 9.03, 8.33, 8.06, 1.63, -0.89, -1.49, -3.4, -4.56, -4.56, -4.43, -4.43, -4.43, -3.91, -3.72, -3.72, -2.8, -1.98, -0.96, 0.0, 0.96, 1.98, 2.64, 2.64, 3.0, 3.72, 4.87, 6.64, 7.59, 7.48, 8.53, 8.93, 8.64, 7.97, 7.68, 7.81, 7.2, 7.12, 6.17, 4.02, 3.47, 4.0, 4.57, 5.26, 5.36, 5.36, 4.92, 4.47, 3.58, 3.58, 4.47, 4.92, 4.92, 4.92, 4.92, 4.92, 4.47, 3.58, 3.13, 3.13, 3.13, 3.13, 3.2, 1.2, 0.0, 0.0, 0.0, 0.0, 1.6, 2.53, 2.8, 3.58, 4.92, 5.81, 5.81, 4.4, 1.05, -0.0, -0.0, -0.0, 0.96, 1.05, -0.0, -0.96, 8.24, 8.24, 8.56, 8.56, 8.85, 9.13, 9.42, 9.37, 9.3, 9.21, 8.55, 7.76, 9.77, 8.95, 8.4, 8.56, 8.99, 8.99, 6.32, 0.0, -0.95, -2.82, -2.99, -4.83, -4.83, -4.43, -3.91, -3.47, -3.0, -2.82, -2.67, -1.73, -0.95, 0.0, 0.96, 1.49, 1.84, 2.82, 2.67, 3.6, 5.38, 6.97, 7.9, 8.05, 8.18, 7.36, 6.95, 6.01, 6.45, 6.11, 6.82, 7.12, 6.45, 5.36, 4.38, 4.4, 5.26, 5.81, 5.81, 5.81, 5.36, 4.92, 3.9, 4.34, 4.77, 5.26, 5.26, 5.26, 5.26, 5.36, 4.92, 4.34, 3.82, 3.2, 3.2, 3.39, 3.82, 1.6, 0.0, 0.0, 0.0, 0.0, 1.13, 1.13, 2.21, 2.98, 4.57, 6.17, 5.81, 2.48, -0.0, -0.0, -0.0, 1.03, 2.16, 2.4, 1.08, -1.08, 8.24, 8.24, 8.56, 8.56, 8.56, 9.13, 9.42, 9.37, 9.3, 9.21, 8.29, 8.0, 9.42, 8.55, 8.4, 8.4, 8.8, 9.2, 8.21, 3.55, 0.0, -1.49, -2.82, -4.58, -4.87, -6.01, -3.72, -2.8, -1.84, -1.73, -1.75, -1.67, -1.84, -1.4, 0.0, 1.58, 2.69, 4.2, 4.25, 5.2, 7.25, 8.43, 7.93, 7.25, 6.7, 6.31, 6.11, 5.58, 5.24, 5.15, 5.46, 6.57, 6.45, 5.81, 5.26, 5.26, 5.73, 5.81, 5.81, 5.81, 5.36, 4.82, 4.34, 4.4, 4.57, 4.98, 5.4, 5.09, 5.09, 5.51, 5.6, 4.98, 3.48, 1.98, 1.98, 3.35, 3.82, 2.21, 0.0, 0.0, 0.0, 1.6, 1.13, 1.13, 2.23, 3.48, 4.98, 5.4, 4.24, 1.05, -0.0, -0.0, -0.0, 1.98, 2.99, 3.22, 1.27, -1.41, 8.24, 8.24, 8.56, 8.56, 8.56, 9.13, 9.13, 9.42, 9.37, 9.3, 8.65, 8.0, 8.42, 8.6, 8.4, 8.8, 8.63, 8.82, 9.03, 6.32, 1.4, 0.0, -1.49, -4.14, -4.42, -4.37, -4.37, -2.99, -1.58, 0.0, 0.0, -0.81, -1.76, -1.75, 0.0, 0.0, 1.39, 3.92, 5.11, 5.91, 7.23, 7.49, 7.51, 6.57, 6.83, 6.32, 6.6, 5.6, 5.4, 5.4, 5.6, 5.94, 6.17, 5.81, 5.73, 5.73, 5.81, 5.81, 5.81, 5.73, 5.73, 5.26, 4.82, 4.82, 4.98, 5.4, 5.4, 5.51, 5.94, 5.6, 5.58, 4.19, 2.4, 1.05, 1.19, 2.23, 3.35, 3.2, 0.0, -0.99, 0.0, 2.84, 2.23, 1.27, 2.48, 4.29, 4.98, 4.02, 1.19, -0.0, -0.0, -0.0, 1.03, 2.8, 4.89, 4.29, 1.27, -1.41, 8.24, 8.24, 8.56, 8.56, 8.56, 9.13, 9.13, 9.42, 9.08, 9.3, 8.65, 7.44, 8.42, 8.8, 9.13, 8.95, 8.43, 9.2, 8.68, 8.38, 3.8, 0.0, -1.4, -2.69, -3.15, -2.99, -3.15, -1.4, -1.4, 0.0, 0.85, 1.75, 1.6, 0.0, 0.0, 0.0, 1.68, 3.51, 4.93, 4.27, 4.1, 5.08, 6.15, 7.27, 7.35, 7.15, 7.2, 6.88, 6.17, 5.36, 5.36, 5.36, 5.36, 5.36, 5.81, 5.81, 5.81, 6.26, 6.26, 5.73, 5.26, 4.82, 4.82, 5.26, 5.73, 5.51, 5.4, 5.4, 5.51, 5.94, 4.98, 3.22, 0.0, 0.0, 0.0, 0.96, 2.23, 1.6, 0.0, -0.98, 0.0, 2.48, 2.23, 2.23, 2.48, 4.34, 4.34, 1.99, 1.03, -0.0, -0.0, 1.03, 3.0, 4.74, 5.58, 4.98, -0.0, -1.08, 8.24, 8.24, 8.56, 8.56, 8.56, 8.85, 9.13, 9.13, 9.42, 9.02, 8.15, 6.87, 8.42, 8.8, 10.6, 9.36, 9.77, 9.81, 9.04, 8.94, 7.68, 2.67, -0.94, -1.84, -1.47, -1.4, -1.4, -1.4, -1.47, -0.94, 0.0, 2.57, 4.56, 4.5, 0.79, 0.0, 0.95, 2.99, 1.28, 0.83, 2.45, 2.71, 3.92, 5.32, 6.58, 6.79, 6.82, 7.12, 6.45, 6.07, 5.36, 4.92, 4.92, 5.36, 5.81, 5.81, 6.26, 6.26, 6.26, 6.26, 5.36, 4.92, 5.36, 5.26, 5.73, 5.73, 5.26, 4.98, 5.4, 5.26, 4.47, 3.13, -1.13, -1.19, -0.96, 0.0, 0.0, 1.27, 1.27, 0.0, 0.0, 2.48, 2.84, 3.2, 3.39, 3.39, 3.22, 1.98, 0.96, 0.96, 0.88, 1.7, 3.72, 5.49, 6.57, 4.98, -0.0, -1.19, 8.24, 8.24, 8.56, 8.56, 8.56, 8.56, 9.13, 9.13, 9.42, 8.5, 7.88, 6.32, 7.4, 8.55, 9.48, 8.63, 9.45, 10.55, 9.52, 10.04, 10.04, 8.55, 5.37, 1.73, 0.0, 0.0, 0.0, -1.49, -1.47, -1.33, 0.0, 1.33, 3.92, 5.46, 1.84, 0.0, 2.24, -0.0, -1.84, 0.0, 0.0, 1.28, 2.82, 4.2, 4.37, 5.69, 5.49, 6.21, 6.0, 5.6, 4.34, 4.34, 4.92, 5.26, 5.73, 6.17, 6.2, 6.64, 6.2, 6.26, 5.81, 5.36, 5.36, 5.36, 5.36, 5.81, 5.73, 5.26, 4.82, 4.92, 4.34, 1.8, -1.4, -3.58, -3.2, -0.99, 0.0, 0.0, 0.0, 0.0, -0.87, 0.0, 2.4, 2.68, 2.97, 2.84, 2.3, 1.99, 1.99, 1.05, 1.83, 2.53, 4.89, 6.21, 6.57, 4.29, 1.08, -0.0, 8.24, 8.24, 8.56, 8.56, 8.56, 8.87, 9.46, 9.13, 9.13, 8.82, 7.3, 6.08, 7.24, 6.98, 7.42, 7.9, 9.08, 9.4, 9.67, 9.52, 9.86, 10.4, 9.2, 7.31, 4.98, 4.84, 4.4, 0.0, 0.0, 0.0, 0.0, 1.39, 4.14, 5.94, 4.02, -0.0, -1.63, -3.4, -4.11, -3.47, 0.0, 1.4, 2.83, 2.99, 4.29, 4.29, 6.51, 6.94, 6.17, 5.7, 5.51, 4.4, 4.98, 5.4, 5.51, 6.02, 6.45, 6.45, 6.45, 6.2, 5.73, 5.73, 5.29, 5.26, 5.36, 5.81, 5.73, 5.26, 4.92, 4.47, 4.34, 2.53, -0.0, -1.13, -1.9, 2.24, 0.0, 0.0, 0.0, -1.98, -2.48, 0.0, 0.0, 2.24, 2.21, 1.98, 2.84, 2.0, 1.8, 2.0, 2.68, 3.48, 4.19, 5.58, 5.58, 4.54, 1.99, 1.14, 8.24, 8.24, 8.56, 8.56, 8.56, 8.87, 9.46, 9.13, 9.13, 8.53, 7.93, 7.61, 7.32, 6.35, 7.1, 6.0, 6.48, 7.1, 7.24, 6.98, 7.9, 8.4, 8.05, 6.08, 3.91, 5.06, 5.06, 5.21, 5.51, 1.73, 0.0, 3.13, -0.0, 3.0, 4.56, 1.98, -0.0, -0.96, -0.0, -0.0, -0.0, 2.53, 4.98, 5.6, 6.17, 6.26, 6.2, 6.88, 7.1, 7.15, 6.2, 4.98, 4.98, 4.98, 5.6, 6.16, 6.57, 6.57, 6.57, 6.0, 5.6, 4.98, 5.6, 4.4, 4.82, 5.73, 6.17, 5.29, 4.92, 4.92, 4.47, 2.97, 1.2, -0.0, -0.0, 1.79, 2.68, 2.24, 0.0, -2.21, -2.84, -1.98, 0.0, 1.79, 2.24, 2.8, 2.6, 2.98, 2.53, 2.98, 3.6, 3.58, 4.65, 4.89, 5.58, 5.24, 4.19, 3.0, 8.24, 8.24, 8.56, 8.56, 8.87, 8.87, 9.17, 9.46, 9.13, 8.85, 8.53, 8.58, 9.17, 9.08, 9.59, 7.48, 6.41, 3.85, 3.84, 3.2, 4.0, 1.4, 1.19, 0.96, -0.0, -0.0, -0.0, -0.0, 1.7, 3.16, -0.0, -0.0, -0.0, 1.14, 1.99, 3.22, 1.98, 3.2, 2.8, 4.29, 4.74, 5.6, 6.17, 7.15, 7.6, 6.45, 6.57, 7.37, 7.54, 7.6, 7.54, 6.0, 4.89, 4.74, 5.06, 5.84, 6.55, 6.18, 5.49, 5.49, 4.74, 4.89, 3.79, 3.48, 3.93, 5.4, 5.94, 5.51, 4.98, 4.98, 4.34, 2.97, 2.68, 2.24, 1.58, 1.58, 2.24, 2.68, 2.24, -2.68, -2.21, -1.98, -0.87, 0.0, 1.58, 2.4, 3.13, 3.13, 3.13, 3.13, 3.47, 4.0, 3.93, 4.54, 5.58, 5.95, 5.06, 4.58, 8.24, 8.24, 8.56, 8.56, 8.87, 8.87, 9.17, 9.17, 9.46, 9.13, 8.56, 8.87, 9.19, 10.65, 10.96, 10.16, 8.1, 6.4, 5.49, 4.19, 0.63, -1.0, -1.61, -3.0, -3.47, -4.11, -4.84, -1.86, -2.2, -0.0, -0.0, 0.96, 1.14, 1.05, 1.99, 2.99, 4.01, 5.37, 5.37, 6.18, 6.6, 6.21, 6.16, 7.01, 6.51, 5.51, 7.01, 7.6, 8.05, 7.47, 6.57, 5.58, 4.74, 4.58, 4.42, 5.24, 4.42, 4.42, 3.97, 3.49, 3.72, 4.24, 3.16, 3.22, 4.11, 4.89, 5.58, 4.89, 3.91, 4.11, 3.48, 2.84, 1.98, 2.23, 1.27, 1.13, 1.4, 2.24, 1.79, -0.0, 1.79, 0.0, 0.0, 0.0, 0.0, 1.13, 1.98, 2.98, 2.97, 3.13, 3.13, 2.97, 3.6, 4.98, 5.94, 6.0, 5.49, 5.49, 8.24, 8.24, 8.56, 8.87, 8.87, 8.87, 9.17, 9.17, 9.17, 9.17, 9.17, 9.17, 9.19, 10.69, 12.27, 13.31, 13.02, 11.74, 10.04, 7.98, 4.47, 1.2, -0.99, -2.79, -3.6, -3.82, -3.39, -2.91, -2.21, -1.2, -0.0, 1.84, 1.84, 1.84, 1.84, 2.8, 4.01, 5.49, 6.21, 6.57, 6.57, 6.45, 5.73, 4.82, 5.09, 4.46, 5.94, 7.15, 7.45, 7.06, 5.21, 5.15, 4.11, 3.93, 5.21, 5.94, 4.43, 0.0, -1.05, -2.68, -0.0, 2.2, 4.34, 4.4, 4.89, 5.58, 5.15, 3.72, 2.12, 1.98, 1.84, 2.16, 1.99, 1.05, 0.0, 0.0, 0.0, -1.4, -1.26, 1.34, 2.24, 3.13, 1.79, 2.24, 0.0, 1.08, 0.0, 0.87, 1.4, 2.4, 2.0, 2.68, 3.13, 4.47, 5.26, 5.6, 5.58, 5.58, 8.24, 8.24, 8.56, 8.87, 8.87, 9.17, 9.17, 9.17, 9.17, 9.17, 9.17, 9.48, 9.77, 10.36, 11.52, 12.82, 13.82, 13.81, 12.98, 11.86, 9.24, 5.26, 1.34, -0.63, -1.7, -2.17, -2.17, -2.12, -1.86, -1.2, -0.0, 0.96, 3.0, 2.6, 2.8, 3.47, 4.81, 6.21, 6.88, 7.1, 6.65, 6.2, 6.26, 5.09, 3.79, 3.22, 3.79, 6.0, 7.15, 7.15, 7.15, 5.94, 4.47, 2.4, 1.84, 3.48, 5.94, 0.0, -5.94, -3.91, -0.84, 1.32, 3.4, 5.21, 4.92, 5.94, 5.6, 3.63, 1.73, 0.0, 0.0, 0.0, -1.05, -1.27, -3.2, -2.8, -1.6, -2.53, -1.4, 0.0, 2.21, 3.13, 2.24, 1.79, 2.24, 1.9, 0.0, -1.27, 0.0, 1.2, 1.2, 2.21, 2.4, 3.58, 4.02, 5.26, 5.94, 5.6, 8.24, 8.56, 8.87, 8.87, 8.87, 9.17, 9.17, 9.17, 9.17, 9.17, 9.48, 9.77, 9.77, 10.36, 11.28, 12.37, 13.23, 13.82, 13.81, 13.26, 11.56, 8.67, 5.57, 2.24, 0.89, 0.45, 0.45, -0.0, -0.0, -0.0, 0.53, 1.33, 2.8, 2.8, 3.0, 3.91, 6.28, 6.57, 7.94, 6.71, 6.71, 6.71, 5.64, 4.84, 3.22, 1.41, 1.52, 4.43, 6.0, 6.0, 6.4, 5.21, 1.63, -0.0, 1.63, 3.72, 4.74, 2.53, -0.0, -1.73, -0.0, -0.0, 1.73, 3.2, 3.72, 5.21, 6.51, 6.71, 4.11, -1.73, -2.8, -4.29, -4.92, -4.4, -2.2, -1.27, -3.13, -2.8, -1.4, 0.0, 1.13, 1.6, 1.58, 1.79, 2.24, 3.2, 2.24, -2.21, -1.2, 0.0, 1.13, 0.0, 0.0, 2.0, 3.58, 5.26, 5.7, 5.7, 7.96, 8.87, 8.87, 8.87, 8.87, 9.17, 9.17, 9.17, 9.17, 9.48, 9.77, 9.77, 10.09, 10.36, 10.94, 11.8, 12.82, 13.48, 13.31, 13.32, 12.3, 10.66, 8.64, 6.16, 4.92, 4.47, 4.44, 3.98, 3.39, 2.91, 2.5, 2.21, 3.14, 4.43, 3.0, 3.9, 5.49, 6.45, 7.15, 6.71, 5.36, 4.98, 5.21, 4.43, 3.22, 1.52, 1.52, 3.22, 3.22, 4.43, 4.43, 3.72, 3.0, 3.47, 3.22, 4.84, 5.21, 4.43, 3.2, 2.82, 1.72, 1.52, 3.47, 3.47, 3.72, 3.72, 4.11, 6.44, 7.15, 0.0, -4.98, -5.51, -3.91, -1.84, -0.0, 1.03, -0.0, 2.24, 0.0, 0.0, 0.0, 0.0, 0.0, 0.0, 0.0, 2.24, 2.84, 1.9, 2.24, 2.68, 0.0, -0.99, 0.0, 2.97, 3.47, 4.02, 4.47, 4.47, 7.96, 8.24, 8.87, 8.87, 8.87, 9.17, 9.17, 9.17, 9.48, 9.48, 9.77, 9.77, 10.09, 10.36, 10.94, 11.44, 11.9, 12.54, 12.79, 12.62, 12.11, 11.08, 9.43, 8.42, 8.03, 8.49, 8.05, 7.15, 6.26, 5.36, 4.02, 3.09, 2.5, 3.22, 2.6, 2.47, 3.47, 5.21, 5.09, 4.4, 3.79, 3.22, 3.0, 2.99, 3.0, 1.32, 3.0, 3.47, 3.22, 4.11, 4.11, 3.22, 3.22, 4.11, 5.21, 5.6, 6.0, 5.36, 4.29, 4.29, 4.29, 3.47, 4.84, 4.84, 5.21, 4.29, 5.58, 6.4, 6.94, 4.92, -5.6, -4.29, -1.96, -0.0, 0.94, 2.99, 3.72, 2.84, 1.9, 0.0, 0.0, 0.0, -1.19, -0.87, 0.0, 0.0, 3.58, 3.58, 3.39, 2.21, -1.58, -1.98, 0.0, 2.4, 3.39, 2.97, 3.58, 3.58, 7.96, 8.24, 8.58, 8.87, 8.87, 9.17, 9.17, 9.48, 9.48, 9.77, 9.77, 10.09, 10.09, 10.36, 10.65, 11.16, 11.72, 12.54, 12.28, 11.92, 12.04, 11.28, 10.04, 9.32, 9.37, 9.37, 8.87, 7.97, 6.68, 5.33, 3.53, 2.68, 2.12, 1.2, 1.13, 0.88, -0.0, -0.0, 1.84, 1.84, 1.52, 1.63, 3.0, 3.0, 2.66, 3.91, 4.29, 4.74, 5.21, 4.84, 4.46, 3.79, 4.46, 4.84, 5.6, 6.51, 6.0, 5.36, 5.36, 4.74, 5.36, 5.6, 5.21, 5.64, 5.81, 4.92, 5.26, 6.51, 6.4, 4.43, -0.0, -1.03, -0.0, -0.0, 1.96, 3.55, 3.97, 3.91, 2.84, 2.68, 0.0, -2.53, -3.16, -0.99, 0.0, 1.6, 2.21, 3.58, 3.39, 3.72, 1.9, 0.0, 0.0, 1.58, 3.13, 3.13, 2.24, 2.24, 7.96, 8.24, 8.24, 8.58, 8.87, 8.87, 9.17, 9.48, 9.48, 9.77, 9.77, 10.09, 10.36, 10.36, 10.36, 12.57, 11.16, 11.16, 10.83, 11.21, 12.46, 12.46, 10.42, 10.32, 9.24, 9.63, 4.4, 6.45, 4.92, 0.89, 0.95, 1.2, 1.34, 1.26, 0.71, -0.0, -0.0, 0.54, 1.08, 1.84, 1.83, 1.99, 3.47, 3.0, 4.56, 5.37, 6.52, 6.64, 6.0, 5.6, 4.84, 4.46, 5.09, 5.09, 6.07, 6.07, 5.6, 6.0, 6.0, 6.0, 6.07, 6.07, 6.07, 5.36, 5.36, 4.92, 5.36, 6.26, 5.94, 6.44, 5.69, 4.58, 4.58, 3.72, 3.72, 2.8, 3.0, 3.0, 2.8, 2.4, -1.27, -4.24, -4.02, -2.4, -2.21, 0.0, 2.24, 1.34, 1.9, 2.53, 3.72, 2.68, 0.0, 1.34, 2.68, 2.68, 2.68, 2.68, 7.96, 7.96, 8.24, 8.58, 8.87, 8.87, 9.17, 9.48, 9.48, 9.77, 9.77, 10.09, 10.36, 10.36, 10.69, 10.88, 10.59, 9.42, 10.63, 11.26, 13.19, 11.6, 10.13, 10.01, 8.73, 6.11, 2.2, -0.45, -1.86, -1.26, -0.45, 0.45, 0.89, 1.2, 0.95, 0.6, -0.0, 0.57, 0.57, 1.24, 1.61, 1.88, 2.53, 2.84, 3.78, 6.52, 7.06, 6.64, 6.51, 5.6, 4.84, 4.84, 4.84, 4.84, 4.98, 5.51, 6.0, 5.51, 6.02, 7.15, 6.71, 6.26, 6.26, 6.26, 4.92, 4.92, 5.36, 5.81, 6.88, 7.12, 8.56, 9.06, 9.24, 7.37, 4.98, 2.2, 1.05, 1.03, 1.84, 1.03, -0.0, -1.05, -3.48, -3.35, -3.2, -2.68, -2.24, -1.79, 1.34, 2.24, 3.82, 2.53, -0.0, -2.21, -0.0, 1.6, 2.21, 2.21, 7.6, 7.96, 7.96, 8.24, 8.58, 8.87, 9.17, 9.48, 9.48, 9.77, 9.77, 10.09, 10.36, 10.36, 10.69, 10.94, 10.65, 9.08, 8.22, 10.51, 11.2, 8.38, 7.86, 7.27, 7.17, 4.84, 2.0, -0.45, -1.58, -1.26, -0.0, 0.45, 0.89, 1.34, 1.2, 1.2, 1.2, 0.95, 0.6, 1.26, 1.58, 1.9, 2.21, 2.79, 3.43, 6.52, 7.06, 7.01, 5.6, 4.84, 4.11, 4.84, 4.84, 4.84, 5.21, 4.98, 6.16, 6.07, 7.6, 7.15, 6.71, 6.26, 6.26, 6.26, 4.92, 4.92, 4.92, 5.73, 6.64, 7.37, 8.77, 9.83, 9.35, 6.45, 3.13, -0.0, -0.0, -0.0, 1.03, 2.12, 1.98, 1.03, -0.0, -1.8, -2.23, -3.2, -3.13, -2.68, -2.68, 1.79, 2.68, 1.6, -0.0, -1.13, -0.0, 0.99, 2.4, 2.4, 7.6, 7.96, 7.96, 7.96, 8.58, 8.87, 9.17, 9.48, 9.48, 9.77, 9.77, 10.09, 10.36, 10.36, 10.69, 11.28, 11.23, 10.01, 9.72, 9.77, 9.37, 7.35, 5.06, 5.08, 6.28, 6.95, 5.57, 2.68, 0.89, -0.0, -0.0, 0.63, 1.34, 1.34, 1.79, 1.79, 1.79, 1.7, 1.6, 1.86, 1.58, 1.9, 2.21, 2.53, 2.84, 4.37, 7.06, 6.51, 4.84, 3.47, 3.47, 3.22, 4.84, 4.84, 5.21, 6.0, 6.16, 7.37, 7.6, 6.64, 5.6, 5.94, 5.51, 5.51, 5.26, 4.92, 4.92, 5.36, 6.17, 7.89, 8.06, 8.05, 3.48, 0.0, -3.2, -2.21, -1.13, -0.0, -0.0, 0.82, 2.12, 1.72, 1.03, -0.0, -0.0, -0.0, -0.0, -1.08, -2.84, -2.68, -1.58, -0.0, -0.0, -0.0, -0.0, 1.9, 3.2, 3.2, 7.6, 7.6, 7.6, 7.96, 8.58, 8.87, 8.87, 9.48, 9.48, 9.48, 9.77, 10.09, 10.36, 10.36, 10.69, 10.94, 10.94, 10.65, 10.65, 10.65, 10.41, 8.68, 5.75, 4.37, 5.01, 6.15, 6.9, 5.88, 3.87, 2.17, 1.34, 1.34, 1.34, 1.79, 1.79, 2.24, 2.24, 2.24, 2.17, 2.0, 2.4, 2.15, 2.5, 2.21, 2.51, 3.16, 6.0, 4.11, 1.52, 1.63, 3.0, 3.47, 4.43, 5.21, 5.21, 5.6, 5.6, 6.57, 7.45, 4.98, 3.91, 4.43, 4.89, 4.98, 4.4, 4.47, 4.47, 4.92, 5.73, 6.17, 7.06, 5.2, -6.0, -5.51, -4.92, -3.13, -2.4, -1.74, -0.88, -0.0, 0.82, 0.95, -0.0, 0.95, 0.95, 0.95, -0.0, -0.0, -2.16, -4.4, -3.9, -2.4, -1.2, -0.0, -0.0, 1.58, 2.4, 2.4, 7.6, 7.6, 7.6, 7.96, 8.58, 8.87, 8.87, 9.48, 9.48, 9.48, 9.77, 10.09, 10.36, 10.36, 10.94, 10.94, 10.94, 10.65, 10.65, 10.59, 10.51, 10.16, 8.51, 6.4, 5.21, 5.49, 6.03, 6.6, 5.4, 3.7, 2.49, 2.12, 1.79, 1.79, 2.24, 2.24, 2.68, 2.68, 2.68, 2.63, 2.4, 2.4, 2.15, 2.15, 1.88, 1.61, 3.22, 1.52, 1.32, 1.4, 2.66, 4.74, 4.43, 4.43, 5.21, 5.6, 5.51, 6.0, 6.8, 5.36, 1.99, 1.98, 3.22, 3.72, 3.2, 3.58, 3.9, 5.36, 5.36, 6.26, 6.71, -3.16, -5.94, -4.98, -4.46, -4.92, -4.47, -4.4, -2.98, -0.81, -0.0, -0.0, -0.0, 0.78, 1.01, 1.01, 0.89, 0.89, -0.0, -1.41, -4.92, -3.58, -2.24, 1.79, -0.0, 1.79, 2.24, 2.24, 7.6, 7.6, 7.6, 7.96, 7.96, 7.96, 8.87, 9.17, 9.48, 9.48, 9.77, 10.09, 10.09, 10.36, 10.69, 10.94, 11.23, 10.65, 10.65, 10.3, 10.59, 10.41, 10.16, 9.01, 7.31, 5.89, 5.75, 6.1, 6.1, 5.31, 4.11, 3.39, 2.63, 2.24, 2.24, 2.24, 2.68, 3.13, 3.13, 3.13, 3.07, 2.91, 2.91, 2.4, 1.86, 1.24, 0.71, 0.53, 0.59, 0.59, 1.11, 3.0, 3.47, 3.47, 4.43, 6.0, 6.0, 5.4, 6.0, 5.51, 3.16, 1.08, 1.27, 2.24, 1.4, 2.23, 3.93, 4.98, 5.81, 6.71, 7.6, 5.36, -4.4, -5.24, -4.98, -4.77, -4.02, -4.0, -4.84, -2.99, -1.84, -0.82, -0.0, -0.0, 0.95, 1.01, 0.89, 1.73, 1.96, 1.7, -0.0, -3.9, -2.97, -2.24, 1.34, 1.34, 1.79, 1.79, 7.33, 7.33, 7.6, 7.96, 7.96, 7.96, 8.87, 8.87, 9.48, 9.48, 9.48, 10.09, 10.09, 10.36, 10.69, 10.94, 10.65, 10.65, 10.65, 10.59, 10.23, 10.51, 10.41, 10.16, 9.2, 7.81, 6.6, 6.1, 5.88, 5.81, 5.31, 4.6, 3.87, 2.97, 2.63, 2.68, 2.68, 3.13, 3.58, 3.58, 3.58, 3.09, 3.07, 3.07, 2.6, 1.6, 0.6, -0.0, -0.0, -0.0, 0.59, 1.13, 2.8, 3.0, 4.29, 5.72, 6.0, 5.6, 6.0, 6.4, 5.94, 4.47, 2.24, -0.0, -0.0, 1.99, 4.11, 5.37, 6.26, 6.64, 7.1, 8.05, 2.21, -4.11, -4.74, -5.37, -4.92, -4.85, -4.98, -4.43, -3.91, -2.6, -0.82, -0.0, -0.0, -0.0, 1.73, 1.84, 1.96, 1.52, 1.98, -3.13, -3.47, -2.68, -1.79, 1.79, 1.34, 1.34, 7.33, 7.33, 7.6, 7.6, 7.96, 8.24, 8.56, 8.87, 9.17, 9.48, 9.48, 9.77, 10.09, 10.36, 10.36, 10.65, 10.65, 10.3, 10.3, 10.59, 10.23, 9.94, 10.23, 10.3, 9.63, 9.2, 8.22, 7.09, 6.6, 5.88, 5.81, 5.81, 5.4, 5.09, 4.66, 4.34, 3.87, 3.53, 3.58, 3.58, 4.02, 3.58, 4.02, 3.13, 3.13, 2.24, 0.89, -0.0, -0.0, -0.0, -0.0, -0.0, 0.51, 1.13, 2.99, 4.43, 5.36, 4.43, 4.54, 5.6, 7.45, 6.17, 5.51, 1.08, 1.32, 1.98, 4.19, 6.45, 6.64, 6.71, 7.1, 7.55, 6.71, 2.53, -2.2, -4.29, -5.94, -5.81, -5.94, -5.58, -4.43, -2.6, -0.76, -0.82, -0.89, -0.0, 1.73, 1.73, 1.01, 0.89, 1.63, 1.72, -3.58, -4.02, -2.24, -1.79, 1.34, 1.34, 7.33, 7.33, 7.33, 7.6, 7.96, 8.24, 8.24, 8.56, 8.87, 9.17, 9.48, 9.77, 10.09, 10.36, 10.36, 10.65, 10.3, 10.3, 10.59, 10.23, 10.01, 9.94, 9.59, 9.86, 9.76, 9.63, 9.2, 9.2, 8.51, 7.81, 6.6, 6.3, 5.88, 6.04, 5.57, 5.09, 4.6, 4.3, 3.98, 3.98, 4.02, 4.02, 4.02, 4.47, 3.39, 1.9, 0.0, -0.63, -0.57, -0.0, -0.0, -0.0, 0.53, 1.16, 1.84, 3.63, 4.74, 4.74, 3.91, 5.21, 6.64, 7.1, 5.94, 2.8, 2.82, 4.14, 6.21, 6.88, 7.15, 7.6, 7.6, 8.0, 8.0, 7.15, 4.92, -0.0, -4.92, -6.17, -6.26, -5.94, -5.6, -2.48, -1.11, -0.88, -0.88, -0.0, 0.89, 0.95, -0.0, -0.0, 1.01, 1.96, -0.0, -2.97, -2.68, -1.79, 1.79, 1.79, 7.33, 7.33, 7.33, 7.61, 8.24, 8.24, 8.24, 8.56, 8.56, 8.87, 9.48, 9.77, 9.77, 10.09, 10.36, 10.65, 10.3, 10.59, 10.59, 10.23, 9.94, 9.94, 9.59, 9.5, 9.76, 9.21, 9.48, 9.35, 9.2, 8.51, 7.81, 7.01, 6.36, 6.3, 6.47, 5.88, 5.57, 4.66, 4.34, 4.43, 3.98, 4.02, 4.02, 5.36, 4.47, 1.24, -0.65, -1.79, -1.2, -0.0, -0.0, 0.54, 0.65, 1.2, 1.88, 1.84, 4.43, 4.02, 3.91, 5.21, 6.45, 6.71, 5.6, 4.22, 3.6, 5.84, 6.6, 7.1, 7.1, 7.37, 7.85, 7.85, 7.85, 7.54, 5.4, 0.96, -1.19, -4.47, -5.73, -5.81, -5.51, -2.84, -1.84, -0.59, -0.0, -0.0, -0.0, -0.0, -0.0, -0.0, 1.03, 1.98, 3.11, -0.0, -2.24, -2.24, 0.0, 0.0, 6.96, 6.96, 7.61, 7.61, 7.61, 7.95, 8.24, 8.56, 8.56, 8.87, 9.17, 9.48, 9.77, 9.77, 9.77, 10.06, 10.3, 10.59, 10.23, 10.01, 9.94, 9.59, 9.66, 9.3, 9.21, 9.21, 9.1, 9.1, 8.96, 8.68, 8.51, 7.81, 7.51, 7.21, 6.79, 6.79, 6.3, 5.57, 5.09, 4.77, 4.34, 3.98, 3.98, 4.02, 3.98, 4.82, 1.13, -0.89, -0.61, -0.0, 0.54, 0.71, 1.0, 1.2, 1.61, 1.88, 1.88, 2.23, 4.11, 4.89, 6.36, 6.45, 5.49, 4.42, 5.49, 5.49, 6.21, 7.47, 6.2, 6.6, 6.82, 7.12, 7.37, 6.17, 3.2, -1.14, -0.89, -1.19, -4.02, -5.26, -5.36, -3.32, -2.5, -1.4, -0.0, -0.0, -0.0, 0.79, -0.0, -0.0, 0.88, 1.99, 3.35, 1.99, -0.0, -1.79, 0.0, 0.0, 6.97, 6.97, 6.97, 7.61, 7.61, 7.95, 7.95, 8.24, 8.56, 8.56, 9.17, 9.17, 9.77, 9.77, 10.06, 10.06, 9.72, 10.01, 10.01, 10.01, 9.94, 9.37, 9.02, 9.3, 8.94, 9.21, 8.84, 8.55, 8.82, 8.82, 8.68, 8.28, 8.0, 7.71, 7.51, 7.01, 6.79, 6.3, 5.4, 5.09, 4.77, 4.34, 4.34, 3.98, 4.02, 5.73, 4.47, 1.24, 1.16, 1.16, 1.2, 1.24, 1.58, 1.9, 1.9, 2.21, 2.21, 2.21, 2.53, 4.29, 5.6, 6.57, 6.18, 6.6, 6.57, 6.16, 5.6, 7.06, 6.71, 6.0, 4.89, 6.17, 7.15, 5.81, -0.0, -3.79, -2.16, -0.88, -2.48, -4.92, -4.38, -4.02, -2.68, -1.86, -0.57, -0.0, 1.9, 3.35, 2.21, -0.0, -0.0, 0.98, 2.53, 3.07, 0.99, 1.34, 1.79, 1.79, 6.97, 6.97, 6.97, 7.33, 7.61, 7.61, 7.95, 7.95, 8.56, 8.56, 9.17, 9.17, 9.17, 9.77, 9.72, 9.72, 9.72, 10.01, 10.01, 9.66, 9.94, 9.37, 9.02, 9.3, 8.94, 9.21, 8.65, 8.55, 10.04, 7.9, 8.0, 8.27, 8.15, 8.0, 7.81, 7.31, 7.01, 6.51, 6.3, 5.4, 5.09, 5.09, 4.77, 4.34, 4.77, 5.33, 5.34, 4.8, 3.72, 2.79, 2.15, 1.86, 2.4, 2.4, 2.8, 2.5, 2.5, 2.5, 2.15, 2.68, 5.2, 6.57, 6.8, 6.79, 7.37, 7.1, 6.71, 7.15, 7.01, 7.15, 5.73, 5.6, 7.89, 8.38, 3.58, -4.4, -4.6, -2.95, -2.95, -4.38, -4.38, -4.15, -3.9, -2.24, -1.34, 0.45, 2.24, 3.58, 4.92, 1.58, -1.2, -0.0, 2.0, 2.95, 1.13, 1.34, 1.34, 1.34, 6.97, 6.97, 6.97, 6.97, 7.33, 7.61, 7.95, 7.95, 8.56, 8.56, 8.87, 9.17, 9.17, 9.17, 9.46, 9.72, 9.72, 10.01, 9.66, 9.66, 9.42, 9.37, 9.02, 9.3, 8.94, 8.73, 8.65, 8.65, 8.55, 10.04, 6.79, 6.52, 7.35, 7.61, 7.76, 7.48, 7.31, 6.8, 6.51, 6.0, 5.81, 5.31, 5.09, 4.6, 4.77, 5.33, 5.36, 4.89, 4.3, 3.39, 2.49, 2.4, 2.6, 2.4, 2.91, 2.91, 2.68, 2.5, 2.5, 2.91, 3.6, 6.57, 7.63, 6.88, 7.1, 7.15, 6.71, 6.71, 8.05, 8.38, 7.2, 6.82, 7.53, 8.45, 6.26, -2.21, -5.73, -5.26, -4.15, -4.47, -3.95, -3.6, -2.98, -3.39, -1.7, 0.0, 2.12, 3.39, 5.36, 2.21, -1.6, -0.99, 0.99, 2.41, 1.98, -0.0, -1.79, -1.79, 6.97, 6.97, 6.97, 6.97, 7.33, 7.33, 7.61, 7.95, 8.56, 8.56, 8.87, 9.17, 9.17, 9.17, 9.46, 9.46, 9.13, 9.13, 9.42, 9.42, 9.42, 9.37, 9.37, 9.02, 8.73, 8.73, 8.65, 8.65, 8.65, 8.0, 6.7, 5.59, 5.65, 6.79, 7.23, 7.23, 7.48, 6.8, 6.28, 6.1, 6.0, 5.81, 5.4, 5.09, 5.09, 4.8, 4.89, 4.92, 4.02, 3.58, 3.07, 3.07, 3.07, 3.07, 3.07, 2.91, 2.91, 3.07, 3.07, 3.07, 6.0, 6.64, 6.64, 7.01, 6.2, 6.26, 6.26, 6.26, 7.6, 8.38, 7.53, 8.0, 8.38, 8.49, 8.49, 3.82, -4.02, -5.36, -4.92, -4.02, -3.58, -2.97, -2.97, -2.97, -2.97, -0.57, 1.2, 3.35, 4.82, 2.21, -1.6, -2.53, -0.0, 0.99, 1.98, -0.0, -1.79, -1.79, 6.71, 6.71, 6.71, 6.97, 6.97, 7.33, 7.61, 7.95, 8.24, 8.56, 8.87, 9.17, 9.17, 9.17, 9.46, 9.13, 9.13, 9.13, 9.42, 9.42, 9.42, 9.08, 9.37, 9.02, 9.08, 8.73, 8.73, 8.65, 8.65, 8.55, 7.76, 6.56, 5.59, 5.93, 6.51, 6.7, 7.07, 6.95, 6.56, 6.28, 6.1, 5.6, 5.81, 5.4, 5.57, 5.09, 5.24, 4.88, 4.02, 3.58, 3.13, 3.13, 3.13, 3.07, 3.07, 3.07, 2.91, 3.32, 3.2, 3.6, 3.6, 6.64, 6.64, 7.01, 7.01, 7.15, 6.2, 6.64, 6.71, 7.1, 6.94, 8.38, 8.82, 8.45, 8.9, 8.0, 3.58, -3.72, -5.26, -4.47, -3.13, -2.4, -2.4, -3.13, -2.97, -0.54, 1.4, 3.93, 4.02, 1.4, -1.6, -3.35, -2.8, -0.0, 1.2, -0.0, -1.79, -1.79, 6.33, 6.33, 6.71, 6.97, 6.97, 7.33, 7.61, 7.95, 8.24, 8.56, 8.56, 9.17, 9.17, 9.13, 9.13, 9.13, 9.13, 9.13, 9.13, 9.42, 9.08, 9.08, 9.08, 9.02, 8.78, 8.73, 8.73, 8.65, 8.65, 8.29, 8.18, 7.76, 6.95, 6.03, 5.59, 6.15, 6.51, 6.7, 6.41, 6.03, 6.28, 6.0, 5.81, 5.81, 5.81, 5.81, 5.51, 4.8, 4.34, 3.98, 3.58, 3.13, 3.13, 3.13, 3.09, 3.09, 3.53, 3.39, 3.39, 3.7, 4.11, 4.52, 7.45, 6.64, 7.1, 7.5, 6.64, 7.1, 7.15, 6.71, 8.05, 7.1, 9.29, 8.9, 8.94, 8.94, 7.54, 2.23, -4.0, -4.38, -3.39, -2.4, -2.4, -3.13, -2.68, 0.0, 1.9, 3.58, 3.2, -0.0, -1.27, -3.72, -3.39, -1.9, -0.0, -0.0, 1.79, 1.79, 6.33, 6.33, 6.71, 6.71, 6.97, 7.33, 7.33, 7.95, 7.95, 8.56, 8.56, 8.56, 8.56, 8.85, 8.85, 8.85, 9.13, 9.13, 9.13, 9.42, 9.08, 9.08, 8.82, 8.78, 8.78, 8.73, 8.73, 8.38, 8.65, 8.29, 8.55, 8.27, 7.61, 6.7, 6.41, 6.41, 6.41, 6.41, 6.41, 6.03, 6.28, 5.75, 5.6, 7.53, 5.31, 5.08, 5.08, 4.8, 4.19, 3.87, 3.53, 3.58, 3.13, 3.58, 3.58, 3.53, 3.53, 3.39, 3.6, 4.11, 4.11, 4.6, 7.45, 6.64, 7.1, 7.94, 6.71, 6.71, 6.71, 6.71, 6.71, 6.71, 8.49, 9.83, 8.49, 8.0, 7.85, 4.98, -3.2, -4.82, -3.6, -2.21, -2.97, -2.68, -2.68, -1.26, -0.0, 2.8, 3.2, -0.0, -1.41, -3.16, -3.72, -3.2, -1.9, 1.79, 1.79, -0.0, 6.33, 6.33, 6.33, 6.71, 6.97, 7.33, 7.33, 7.95, 7.95, 8.56, 8.56, 8.85, 8.85, 8.85, 8.85, 8.85, 8.85, 9.13, 9.13, 9.42, 8.82, 8.82, 8.82, 8.5, 8.78, 8.78, 8.73, 8.73, 8.65, 8.65, 8.08, 8.0, 7.9, 7.35, 7.23, 6.56, 6.41, 6.03, 6.03, 6.03, 5.86, 5.75, 5.6, 7.53, 5.09, 4.55, 4.65, 4.07, 3.72, 3.39, 3.09, 3.13, 3.13, 3.58, 3.58, 3.53, 3.53, 3.39, 3.87, 4.11, 4.11, 4.6, 7.45, 6.64, 7.1, 7.6, 7.15, 6.26, 6.71, 6.71, 6.26, 7.6, 8.49, 8.49, 8.94, 7.12, 6.21, 3.2, -4.02, -4.85, -3.6, -2.98, -3.13, -3.13, -2.24, 1.79, 1.79, 2.68, 1.9, -0.0, -2.0, -3.48, -3.16, -3.2, -2.68, -1.79, 1.34, 1.79, 6.33, 6.33, 6.33, 6.71, 6.71, 7.33, 7.33, 7.95, 7.95, 7.95, 8.53, 8.85, 8.85, 8.85, 8.85, 8.85, 8.85, 8.85, 8.85, 8.82, 8.82, 8.82, 8.5, 8.5, 8.5, 8.78, 8.78, 8.73, 8.73, 8.65, 8.29, 8.37, 8.0, 7.9, 7.35, 7.23, 6.95, 6.56, 6.41, 6.03, 5.86, 5.75, 5.75, 5.81, 7.85, 4.6, 2.84, 1.6, 1.61, 2.4, 2.6, 2.68, 3.13, 3.13, 3.58, 3.53, 3.53, 3.82, 3.87, 4.3, 4.11, 4.6, 5.24, 7.5, 7.15, 7.15, 6.26, 6.26, 6.26, 6.26, 6.71, 6.64, 8.38, 8.94, 8.94, 6.36, 2.2, -3.35, -5.81, -4.38, -3.9, -3.9, -3.47, -2.68, -2.24, 0.0, 1.26, 2.24, -0.0, -1.13, -2.0, -3.48, -4.0, -3.2, -2.24, -2.24, -1.79, 1.34, 6.33, 6.33, 6.33, 6.71, 6.71, 6.97, 7.61, 7.61, 8.24, 8.24, 8.24, 8.53, 8.53, 8.53, 8.53, 8.53, 8.53, 8.53, 8.53, 8.82, 8.82, 8.82, 8.5, 8.5, 8.5, 8.5, 8.78, 8.78, 8.73, 8.65, 8.65, 8.08, 8.0, 8.0, 7.9, 7.35, 7.23, 7.08, 6.56, 6.41, 6.03, 5.49, 5.49, 5.75, 6.51, 7.12, 1.86, 0.0, 0.6, 1.2, 1.79, 2.24, 2.68, 3.13, 3.53, 3.53, 3.53, 3.82, 3.87, 4.3, 4.34, 4.34, 7.01, 7.01, 7.01, 7.15, 6.26, 7.15, 5.81, 6.26, 6.71, 6.94, 8.48, 8.38, 8.49, 6.26, -1.08, -5.6, -5.73, -4.34, -3.2, -3.6, -3.6, -2.21, -1.0, 0.0, 1.9, 2.24, -0.0, -1.27, -2.0, -3.48, -4.0, -3.39, -2.24, 1.79, -2.24, -2.24, 6.33, 6.33, 6.33, 6.71, 6.98, 6.98, 7.61, 7.61, 8.24, 8.24, 8.24, 8.24, 8.24, 8.53, 8.53, 8.53, 8.53, 8.53, 8.53, 8.82, 8.82, 8.5, 8.22, 8.22, 8.22, 8.5, 8.78, 8.78, 8.73, 8.73, 8.65, 8.65, 8.37, 8.0, 8.0, 7.72, 7.35, 7.23, 6.95, 6.95, 6.41, 6.03, 5.49, 5.75, 6.8, 6.79, 5.33, 3.13, 2.24, 2.24, 2.24, 2.68, 2.68, 3.07, 3.53, 3.53, 3.53, 3.87, 3.87, 4.3, 4.34, 4.77, 4.77, 7.5, 7.45, 7.45, 7.01, 6.71, 5.81, 6.71, 7.1, 7.12, 8.4, 7.53, 9.26, 6.71, -1.4, -5.37, -5.37, -4.29, -3.6, -3.6, -3.35, -2.21, 0.0, 0.0, 2.68, 2.24, -0.0, -1.27, -2.0, -2.0, -2.84, -3.2, 1.79, 1.79, 1.79, 1.79, 6.33, 6.33, 6.33, 6.33, 6.98, 6.98, 7.61, 7.61, 7.93, 8.24, 8.24, 8.24, 8.24, 8.24, 8.24, 8.24, 8.53, 8.53, 8.53, 8.82, 8.5, 8.22, 8.22, 8.22, 8.22, 8.22, 8.5, 8.78, 8.45, 8.73, 8.38, 8.65, 8.29, 8.37, 8.0, 7.64, 7.72, 7.35, 7.23, 6.95, 6.95, 6.41, 6.03, 6.13, 6.28, 7.01, 7.06, 6.68, 5.81, 4.92, 4.02, 3.58, 3.13, 3.09, 3.53, 3.53, 3.53, 3.98, 3.87, 4.3, 4.34, 4.77, 4.77, 7.5, 7.06, 7.06, 7.06, 7.01, 5.81, 6.71, 6.94, 7.2, 8.17, 8.72, 8.56, 8.44, 5.81, 2.24, -3.72, -4.98, -4.98, -4.0, -2.98, -2.21, -1.2, 0.0, 2.24, 1.9, -0.0, -1.13, -1.08, -1.08, -1.27, -2.68, 1.79, 2.24, 2.24, 2.24, 6.08, 6.08, 6.08, 6.61, 6.98, 6.98, 6.98, 7.61, 7.61, 7.93, 7.93, 7.93, 8.24, 8.24, 7.93, 7.93, 7.93, 8.5, 8.82, 8.5, 8.22, 8.22, 8.22, 8.22, 8.22, 8.22, 8.22, 8.19, 8.45, 8.45, 8.73, 8.38, 8.65, 8.29, 8.0, 8.0, 7.72, 7.35, 7.61, 7.23, 6.95, 6.56, 6.41, 6.28, 6.28, 6.51, 6.79, 6.94, 6.68, 6.26, 5.36, 4.47, 4.02, 3.58, 3.58, 3.53, 3.53, 3.98, 3.98, 4.43, 4.34, 4.77, 4.8, 5.24, 7.63, 7.63, 7.63, 6.45, 6.71, 6.64, 8.06, 7.2, 7.82, 8.72, 9.06, 8.94, 9.34, 8.29, 5.73, 2.68, -4.24, -4.22, -3.6, -2.6, -2.4, -1.79, 1.34, 1.9, -0.0, -1.6, -2.0, -1.9, -2.68, -2.24, 0.0, 0.0, 0.0, 0.0, 6.08, 6.08, 6.08, 6.34, 6.61, 6.98, 6.98, 7.61, 7.61, 7.61, 7.93, 7.93, 7.93, 7.93, 7.93, 7.93, 8.22, 8.22, 8.5, 8.5, 8.22, 8.22, 8.22, 8.22, 8.22, 8.22, 7.9, 8.19, 8.19, 8.19, 8.49, 8.38, 8.65, 8.65, 8.08, 8.0, 7.64, 7.72, 7.35, 7.23, 7.07, 6.95, 6.41, 6.28, 6.28, 6.51, 6.1, 6.3, 6.47, 6.16, 5.78, 5.33, 4.92, 4.47, 4.02, 3.58, 3.54, 3.98, 3.98, 4.43, 4.44, 4.77, 4.8, 5.24, 5.57, 8.06, 7.94, 6.71, 7.15, 7.1, 7.53, 7.6, 7.76, 8.56, 9.24, 9.39, 9.35, 9.68, 9.06, 8.17, 5.26, -1.6, -4.98, -3.9, -2.97, -2.68, 1.34, 1.34, -0.0, -0.0, -0.0, 2.24, -2.68, -2.68, 0.0, 0.0, 0.0, 0.0, 5.69, 5.69, 6.08, 6.34, 6.34, 6.98, 6.98, 7.32, 7.61, 7.61, 7.61, 7.93, 7.93, 7.93, 7.93, 8.22, 8.22, 8.22, 8.22, 8.22, 8.22, 8.22, 7.9, 7.9, 7.9, 7.9, 7.9, 8.19, 8.19, 8.19, 7.86, 8.15, 8.15, 8.65, 8.08, 8.37, 8.0, 7.44, 7.35, 7.35, 7.07, 6.7, 6.56, 6.41, 6.28, 6.28, 6.1, 6.3, 6.04, 5.99, 5.7, 5.34, 4.89, 4.92, 4.02, 4.02, 4.02, 4.02, 3.98, 4.44, 4.44, 4.88, 4.8, 5.24, 5.09, 8.38, 7.6, 7.6, 7.6, 7.54, 7.63, 7.63, 8.06, 8.77, 9.35, 9.39, 9.39, 9.35, 9.21, 8.56, 8.56, 4.47, -4.4, -4.82, -3.39, -2.4, -2.24, -1.79, -1.9, -0.0, -0.0, -0.0, -2.68, -2.24, 2.24, 0.0, 0.0, 0.0, 5.69, 5.69, 6.08, 6.34, 6.34, 6.98, 6.98, 6.98, 7.32, 7.32, 7.32, 7.61, 7.61, 7.61, 7.93, 8.22, 8.22, 8.22, 8.22, 8.22, 8.22, 7.9, 7.9, 7.9, 7.9, 7.9, 7.9, 8.19, 8.19, 8.19, 7.86, 7.86, 8.15, 8.15, 8.08, 8.08, 8.0, 8.0, 7.72, 7.35, 6.98, 7.07, 6.7, 6.41, 6.28, 6.28, 6.1, 6.3, 5.81, 5.57, 5.57, 5.24, 5.24, 4.89, 4.47, 4.02, 4.02, 4.02, 4.47, 4.44, 4.44, 4.88, 4.8, 4.77, 4.77, 7.94, 7.5, 7.6, 7.6, 7.6, 8.0, 7.85, 8.33, 8.9, 8.9, 8.94, 8.94, 8.94, 8.45, 8.45, 8.9, 6.71, -1.6, -5.09, -3.9, -3.13, -2.68, -2.24, -2.24, 1.79, -0.0, -0.0, -0.0, -0.0, 1.79, 2.24, 2.24, 2.24, 5.69, 5.69, 5.95, 6.34, 6.34, 6.34, 6.98, 6.98, 7.32, 7.32, 7.32, 7.32, 7.32, 7.32, 7.6, 7.9, 7.9, 8.22, 8.22, 8.22, 7.9, 7.9, 7.9, 7.9, 7.9, 7.9, 7.9, 7.9, 8.19, 8.19, 7.86, 7.86, 8.15, 8.15, 7.81, 8.08, 8.08, 8.0, 7.64, 7.72, 7.35, 7.07, 6.7, 6.41, 6.41, 6.28, 5.89, 6.0, 5.81, 5.4, 5.57, 5.09, 5.24, 4.8, 4.44, 4.47, 4.47, 4.47, 4.47, 4.47, 4.88, 4.89, 4.89, 4.88, 4.88, 6.64, 6.64, 6.94, 7.1, 7.6, 8.29, 8.29, 8.45, 8.45, 8.45, 8.45, 8.49, 8.49, 8.05, 8.05, 8.49, 8.05, 4.09, -3.48, -4.85, -3.58, -2.68, -2.24, -2.24, -2.24, -2.24, -0.0, -0.0, -0.0, 2.24, 1.79, 1.79, 1.79, 5.95, 5.7, 5.95, 6.34, 6.34, 6.34, 6.98, 6.98, 7.32, 7.32, 7.32, 7.32, 7.32, 7.32, 7.6, 7.6, 7.9, 7.9, 8.22, 7.9, 7.9, 7.9, 7.9, 8.22, 8.22, 7.9, 7.9, 7.9, 8.19, 8.19, 7.86, 7.86, 7.86, 7.88, 7.55, 7.55, 7.85, 7.73, 8.0, 7.44, 7.35, 6.79, 6.7, 6.51, 6.41, 6.03, 6.28, 6.0, 5.6, 5.81, 5.57, 5.09, 5.24, 4.88, 4.88, 4.44, 4.47, 4.47, 4.92, 4.92, 4.92, 4.89, 4.89, 4.89, 4.92, 6.26, 6.2, 6.45, 6.65, 7.15, 7.12, 7.2, 7.76, 8.29, 8.0, 8.0, 8.05, 8.05, 8.05, 8.05, 8.05, 8.05, 6.64, 0.0, -5.81, -3.13, -2.24, -1.79, -1.79, -2.24, -2.68, -2.24, 1.79, 2.24, 2.24, 2.24, 2.24, 2.24, 5.7, 5.7, 5.7, 5.95, 6.34, 6.34, 6.7, 6.98, 6.98, 7.32, 7.32, 7.32, 7.32, 7.32, 7.6, 7.6, 7.6, 7.9, 7.9, 7.9, 7.9, 7.9, 7.91, 7.91, 8.22, 7.9, 7.9, 7.9, 8.19, 8.19, 8.19, 7.86, 7.59, 7.55, 7.55, 7.55, 7.23, 7.51, 7.51, 7.8, 7.44, 7.35, 6.79, 6.7, 6.41, 6.41, 6.28, 5.75, 6.0, 5.81, 5.4, 5.09, 5.09, 4.77, 4.88, 4.88, 4.92, 4.92, 4.92, 4.92, 5.36, 5.36, 5.36, 5.36, 5.36, 5.36, 6.71, 6.26, 6.26, 6.26, 6.45, 6.6, 6.55, 6.79, 8.29, 8.0, 8.05, 8.05, 8.05, 8.05, 8.05, 8.05, 7.1, 0.0, -4.47, -3.13, -2.68, -1.79, -0.0, -1.9, -2.4, -2.24, -2.68, 2.24, -0.0, -0.0, -0.0, -0.0, 5.7, 5.7, 5.7, 5.7, 6.34, 6.34, 6.34, 6.98, 6.98, 7.32, 7.32, 7.32, 7.32, 7.32, 7.32, 7.6, 7.6, 7.9, 7.9, 7.9, 7.9, 7.6, 7.61, 7.61, 7.6, 7.6, 7.9, 7.9, 7.9, 8.19, 8.19, 7.86, 7.59, 7.55, 7.55, 7.23, 7.23, 7.23, 7.51, 7.51, 7.44, 7.09, 7.15, 7.07, 6.7, 6.41, 6.03, 6.28, 5.75, 5.6, 5.81, 5.31, 5.09, 4.8, 4.77, 4.88, 4.89, 4.92, 5.36, 5.36, 5.36, 5.36, 5.36, 5.36, 5.36, 5.36, 6.71, 6.26, 6.26, 6.64, 6.71, 6.16, 5.49, 5.37, 7.2, 7.53, 8.0, 8.05, 8.05, 8.0, 8.0, 8.0, 6.45, -5.81, -4.47, -3.13, -2.68, -2.24, -1.58, -1.2, -1.9, -1.58, -2.21, -2.21, -1.6, -1.6, -1.6, -1.6, 5.7, 5.7, 5.7, 5.7, 5.95, 6.34, 6.34, 6.7, 6.98, 6.98, 7.32, 7.32, 7.32, 7.32, 7.32, 7.6, 7.6, 7.6, 7.6, 7.6, 7.6, 7.6, 7.32, 7.32, 7.32, 7.6, 7.6, 7.9, 7.9, 8.19, 8.19, 7.86, 7.59, 7.55, 7.55, 6.95, 6.95, 7.25, 6.92, 7.17, 7.44, 7.44, 7.15, 6.79, 7.07, 6.7, 6.41, 6.03, 6.28, 6.0, 5.6, 5.4, 5.09, 5.24, 4.8, 4.89, 4.89, 5.36, 5.36, 5.36, 5.36, 5.36, 5.36, 5.36, 5.81, 5.78, 5.78, 5.81, 7.15, 7.15, 7.15, 7.6, 6.64, 6.17, 5.6, 6.6, 7.12, 7.81, 7.85, 7.85, 7.37, 7.81, -2.21, -6.26, -4.92, -3.58, -3.13, -2.68, -2.0, -1.58, -1.9, -1.2, -1.6, -1.6, -1.8, -1.8, -1.8, -1.8, 5.29, 5.29, 5.7, 5.7, 5.7, 6.34, 6.34, 6.7, 6.98, 6.98, 6.98, 6.98, 6.98, 6.98, 7.32, 7.32, 7.6, 7.6, 7.6, 7.6, 7.6, 7.6, 7.32, 7.32, 7.32, 7.6, 7.6, 7.9, 7.9, 8.19, 8.19, 7.86, 7.27, 7.55, 7.23, 6.95, 6.64, 6.92, 6.92, 6.92, 7.21, 6.87, 7.15, 6.79, 7.07, 6.7, 6.95, 6.41, 6.28, 5.89, 6.0, 5.6, 5.51, 5.09, 5.24, 5.24, 5.33, 5.33, 5.78, 5.81, 5.81, 5.81, 5.36, 5.36, 5.81, 5.78, 5.78, 5.36, 7.15, 7.15, 7.6, 7.6, 8.0, 7.55, 7.15, 7.1, 6.6, 7.53, 7.63, 7.53, 7.12, 7.37, 0.0, -6.17, -6.26, -4.92, -4.02, -3.58, -2.68, -2.4, -1.9, -1.2, -1.6, -1.6, -2.53, -1.4, -1.4, -1.4, 5.29, 5.29, 5.7, 5.7, 5.7, 6.34, 6.34, 6.7, 6.98, 6.98, 6.98, 6.98, 6.98, 6.98, 6.98, 7.6, 7.6, 7.6, 7.6, 7.6, 7.6, 7.6, 7.32, 7.32, 7.6, 7.6, 7.6, 7.6, 7.9, 8.19, 7.86, 7.59, 7.27, 7.55, 6.95, 6.95, 6.92, 6.92, 6.59, 6.87, 6.87, 6.87, 7.15, 6.79, 6.79, 7.07, 6.7, 6.95, 6.41, 6.28, 6.1, 6.0, 5.4, 5.57, 5.24, 5.24, 5.34, 5.78, 5.78, 5.78, 5.78, 5.78, 5.34, 5.34, 5.78, 5.78, 5.34, 5.33, 5.36, 7.1, 7.6, 7.6, 8.05, 8.05, 8.05, 7.6, 7.81, 7.53, 8.06, 7.63, 7.37, 6.71, 4.02, -4.47, -6.71, -5.36, -3.58, -3.13, -3.13, -2.68, -2.4, -1.9, -1.9, -2.21, -2.53, -2.21, -2.21, -2.21, 5.29, 5.29, 5.7, 5.7, 5.7, 6.34, 6.34, 6.34, 6.98, 6.98, 6.98, 6.98, 6.7, 6.7, 6.7, 7.27, 7.6, 7.6, 7.6, 7.6, 7.6, 7.6, 7.6, 7.6, 7.6, 7.6, 7.6, 7.6, 7.9, 8.19, 7.86, 7.59, 7.55, 7.55, 6.95, 6.64, 6.92, 6.92, 6.59, 6.87, 6.87, 6.52, 6.79, 6.79, 6.79, 7.07, 6.7, 6.95, 6.56, 6.67, 6.28, 6.3, 5.81, 5.57, 5.57, 5.7, 5.7, 5.7, 6.16, 6.16, 6.14, 5.78, 5.78, 5.34, 5.78, 5.78, 5.33, 5.33, 4.89, 7.1, 7.1, 7.1, 7.6, 7.6, 7.6, 7.55, 7.12, 8.06, 7.76, 8.06, 7.15, 7.54, 7.08, -0.0, -5.81, -6.26, -4.47, -3.58, -3.13, -3.13, -2.68, -2.68, -2.4, -3.2, -3.2, -2.53, -2.53, -2.53, 5.29, 5.29, 5.7, 5.7, 5.7, 6.34, 6.34, 6.34, 6.98, 6.98, 6.98, 6.7, 6.7, 6.7, 6.98, 6.98, 7.3, 7.3, 7.3, 7.3, 7.6, 7.6, 7.6, 7.6, 7.6, 7.6, 7.6, 7.6, 7.59, 7.86, 7.86, 7.59, 7.55, 7.23, 6.95, 6.92, 6.92, 6.59, 6.87, 6.62, 6.28, 6.28, 6.79, 6.79, 6.79, 7.07, 7.07, 6.95, 6.56, 6.8, 6.28, 6.1, 6.3, 5.99, 5.99, 5.99, 5.99, 6.04, 6.04, 6.04, 6.04, 5.7, 5.7, 5.26, 5.26, 5.7, 5.24, 5.24, 5.24, 6.88, 7.1, 7.15, 7.15, 7.1, 7.15, 7.6, 7.54, 7.12, 7.76, 8.0, 7.6, 7.85, 8.29, 4.4, -4.77, -6.71, -5.26, -3.9, -3.58, -3.58, -3.13, -3.13, -2.8, -2.84, -3.35, -2.53, -2.53, -2.53, 5.29, 5.29, 5.29, 5.7, 5.7, 5.95, 6.34, 6.34, 6.34, 6.7, 6.7, 6.7, 6.7, 6.98, 6.98, 6.98, 6.98, 7.3, 7.3, 7.3, 7.3, 7.6, 7.6, 7.6, 7.6, 7.3, 7.3, 7.3, 7.59, 7.59, 7.59, 7.27, 7.55, 7.23, 6.95, 6.92, 6.92, 6.59, 6.62, 6.62, 6.28, 6.28, 6.57, 6.79, 6.79, 7.07, 6.7, 6.95, 6.56, 6.8, 6.28, 6.1, 6.3, 5.88, 6.04, 6.04, 6.04, 6.3, 6.3, 6.3, 6.04, 5.57, 5.57, 5.67, 5.7, 5.67, 5.24, 5.24, 5.09, 5.57, 5.7, 7.6, 6.65, 6.64, 7.15, 7.6, 7.6, 7.6, 7.54, 8.0, 8.05, 8.0, 8.0, 5.26, -3.82, -6.71, -5.73, -4.57, -4.38, -3.9, -3.58, -3.58, -3.39, -3.35, -3.35, -3.2, -3.2, -3.2, 5.06, 5.06, 5.29, 5.7, 5.7, 5.7, 6.34, 6.34, 6.34, 6.34, 6.34, 6.63, 6.98, 6.98, 6.98, 6.98, 6.98, 6.98, 6.98, 6.98, 7.3, 7.6, 7.6, 7.6, 7.3, 7.3, 7.3, 7.59, 7.59, 7.59, 7.59, 7.55, 7.55, 7.23, 6.95, 6.92, 6.92, 6.59, 6.32, 6.62, 6.28, 6.28, 6.57, 6.57, 6.79, 6.7, 6.7, 6.7, 6.56, 6.41, 6.28, 6.51, 6.1, 6.3, 6.3, 6.3, 6.3, 6.3, 6.3, 6.3, 5.81, 5.81, 5.4, 5.51, 5.51, 5.51, 5.09, 5.09, 5.51, 5.57, 5.57, 7.1, 6.71, 7.45, 6.64, 7.15, 7.6, 7.6, 7.6, 8.05, 8.05, 8.05, 8.05, 5.81, -3.58, -6.64, -5.94, -5.4, -5.09, -4.57, -4.38, -4.47, -4.02, -3.9, -3.47, -3.13, -3.13, -3.13, 5.06, 5.06, 5.29, 5.7, 5.7, 5.7, 5.7, 6.34, 6.34, 6.34, 6.63, 6.35, 6.35, 6.35, 6.69, 6.98, 6.98, 6.98, 6.98, 6.98, 6.98, 7.27, 7.6, 7.3, 7.3, 7.3, 7.59, 7.59, 7.59, 7.59, 7.59, 7.55, 7.55, 7.23, 6.95, 6.92, 6.92, 6.59, 6.32, 6.62, 6.28, 6.28, 6.28, 6.57, 6.23, 6.23, 6.51, 6.51, 6.41, 6.41, 6.28, 6.28, 6.1, 6.0, 6.0, 6.1, 6.1, 6.1, 6.1, 6.1, 6.0, 5.6, 5.31, 5.31, 5.31, 5.31, 5.09, 5.09, 4.9, 5.31, 5.31, 5.24, 4.89, 7.6, 6.26, 6.71, 7.15, 7.6, 7.6, 7.6, 8.0, 8.05, 8.05, 6.71, 2.24, -6.17, -6.57, -6.0, -5.94, -5.51, -5.7, -5.26, -4.92, -4.47, -4.02, -4.02, -4.02, -4.02, 5.06, 5.06, 5.29, 5.7, 5.7, 5.7, 5.7, 6.34, 6.34, 6.34, 6.63, 6.35, 6.35, 6.35, 6.69, 6.98, 6.98, 6.98, 6.98, 6.98, 6.98, 7.27, 7.6, 7.3, 7.3, 7.3, 7.59, 7.59, 7.59, 7.59, 7.59, 7.55, 7.55, 7.23, 6.95, 6.92, 6.92, 6.59, 6.32, 6.62, 6.28, 6.28, 6.28, 6.57, 6.23, 6.23, 6.51, 6.51, 6.41, 6.41, 6.28, 6.28, 6.1, 6.0, 6.0, 6.1, 6.1, 6.1, 6.1, 6.1, 6.0, 5.6, 5.31, 5.31, 5.31, 5.31, 5.09, 5.09, 4.9, 5.31, 5.31, 5.24, 4.89, 7.6, 6.26, 6.71, 7.6, 7.6, 7.6, 7.6, 8.0, 7.55, 7.6, 7.6, 5.36, -3.13, -6.17, -6.88, -6.45, -6.2, -6.17, -5.73, -5.36, -5.36, -4.92, -4.47, -4.47, -4.47]}, {"header": {"dx": 0.06612293990616946, "dy": 0.0552356325346848, "nx": 98, "ny": 59, "la1": 35.046912555036876, "la2": 31.78801023549047, "lo1": -121.43107172385933, "lo2": -114.95102361305473, "refTime": "2026040720", "parameterCategory": 1, "parameterNumber": 3}, "data": [-9.42, -9.13, -9.13, -8.85, -8.85, -7.95, -7.61, -6.97, -6.7, -6.31, -5.02, -3.94, -3.39, -2.59, -1.75, -0.89, -0.94, -4.11, -7.15, -6.94, -6.4, -6.08, -5.24, -4.89, -4.43, -3.91, -4.43, -4.89, -4.89, -4.98, -5.4, -4.98, -5.36, -5.36, -5.26, -5.4, -5.6, -5.6, -4.89, -3.91, -3.47, -3.97, -5.59, -6.3, -6.5, -6.84, -7.51, -7.51, -6.84, -5.64, -3.45, -2.82, -1.05, 0.0, 2.23, 2.48, 2.2, 0.96, 0.96, 0.0, 0.0, 0.0, 0.0, 0.0, 0.98, 1.08, 1.19, 0.0, 0.0, 0.0, 0.0, 0.0, 0.0, 0.0, 0.0, 0.0, -1.9, -2.4, -3.13, -3.13, -3.13, -3.58, -3.2, -2.53, -1.4, 0.0, 0.0, 0.0, 0.0, 2.2, 5.26, 6.26, 6.26, 6.26, 5.73, 5.26, 4.92, 4.82, -9.42, -9.42, -9.13, -9.13, -8.85, -8.24, -7.61, -7.61, -6.97, -6.07, -5.04, -5.0, -4.25, -3.11, -2.39, -2.58, -1.67, -2.69, -6.51, -6.2, -7.45, -6.8, -6.08, -6.08, -4.43, -4.43, -4.43, -4.89, -5.58, -5.58, -5.6, -5.94, -5.73, -5.81, -5.73, -5.94, -6.16, -6.16, -6.0, -5.58, -5.84, -6.64, -7.59, -8.31, -8.53, -8.12, -7.78, -7.18, -6.83, -5.21, -4.5, -2.67, -1.03, 0.0, 0.87, 2.0, 1.83, 1.05, 0.0, 0.0, 0.0, 0.0, 0.0, 0.0, 0.0, 0.0, 0.0, 0.0, 0.0, 0.0, 0.0, 0.0, 0.0, 0.0, 0.0, 0.0, -1.6, -2.4, -3.13, -3.13, -3.13, -3.58, -3.2, -2.53, -1.4, 0.0, 0.0, 0.0, 0.0, 2.2, 5.26, 6.26, 6.26, 6.26, 5.73, 5.26, 4.92, 4.82, -9.42, -9.42, -9.13, -9.13, -8.85, -8.56, -8.24, -7.61, -6.97, -6.33, -5.7, -4.44, -4.44, -4.07, -3.06, -2.57, -2.7, -2.7, -4.22, -7.6, -6.64, -7.06, -7.47, -6.44, -6.44, -4.43, -4.89, -5.21, -6.0, -6.57, -7.12, -6.94, -6.64, -7.15, -5.73, -7.45, -6.45, -6.57, -7.12, -7.2, -7.69, -9.3, -10.28, -11.28, -10.63, -9.0, -6.95, -6.01, -5.53, -5.24, -4.26, -2.67, -1.84, 0.0, 0.88, 2.2, 1.05, 0.0, 0.0, 0.0, 0.0, 0.0, -0.98, -1.08, -1.19, -1.05, -1.05, -1.05, -1.05, 0.0, 0.0, -1.08, -1.27, -1.6, -1.6, -1.13, -1.27, -3.2, -3.13, -3.58, -3.58, -3.58, -3.39, -3.39, -2.21, -1.98, -1.83, -1.03, 0.0, 3.72, 5.81, 6.26, 6.26, 6.17, 5.4, 4.8, 4.34, 4.34, -9.42, -9.42, -9.13, -9.13, -9.13, -8.56, -8.24, -7.61, -6.97, -6.33, -6.08, -5.72, -5.14, -3.88, -4.2, -4.2, -4.4, -4.6, -4.56, -6.21, -7.15, -7.45, -7.06, -5.49, -5.84, -6.01, -5.58, -5.6, -6.45, -6.94, -7.85, -8.33, -8.29, -8.38, -7.6, -7.89, -8.06, -8.4, -9.36, -10.4, -11.28, -12.65, -11.9, -11.28, -10.04, -8.12, -5.24, -3.72, -4.19, -4.29, -3.9, -2.82, -1.84, 0.0, 1.05, 1.05, 0.96, 0.0, 0.0, 0.0, 0.0, -0.96, -1.08, -2.2, -1.83, -1.99, -2.16, -1.7, -1.7, -1.84, -2.8, -2.99, -3.48, -2.98, -2.98, -2.23, -1.27, -2.21, -3.58, -3.58, -2.68, -3.2, -3.39, -3.39, -3.35, -3.48, -2.99, -2.16, 1.41, 5.26, 6.26, 6.26, 6.26, 5.94, 4.98, 4.29, 3.82, 4.24, -9.42, -9.42, -9.13, -9.13, -9.13, -8.56, -8.56, -8.24, -7.61, -6.97, -6.34, -5.72, -5.9, -4.78, -4.2, -4.4, -4.71, -5.29, -4.92, -6.32, -8.38, -8.05, -7.45, -6.9, -6.18, -7.28, -7.28, -7.47, -7.89, -7.15, -8.05, -8.9, -9.68, -8.77, -9.39, -9.39, -9.74, -10.46, -11.92, -13.52, -12.86, -11.66, -10.01, -9.04, -7.68, -6.32, -3.77, -2.8, -2.16, -2.16, -2.8, -1.98, -1.03, 0.0, 0.96, 0.96, 0.0, 0.0, 0.0, -0.96, -0.96, -1.05, -0.96, -0.96, -1.99, -2.16, -2.16, -1.84, -1.98, -2.8, -3.72, -5.24, -4.8, -5.26, -4.77, -3.35, -2.23, -1.6, -3.58, -2.97, -3.13, -2.84, -3.35, -3.82, -3.72, -3.22, -1.99, 0.0, 4.77, 6.26, 6.26, 6.26, 6.17, 5.6, 3.91, 3.22, 3.82, 4.24, -9.42, -9.42, -9.13, -9.13, -9.13, -8.56, -8.56, -8.24, -7.95, -6.97, -6.34, -5.72, -5.9, -4.4, -3.65, -4.07, -5.06, -5.52, -6.31, -6.7, -7.6, -8.05, -8.38, -8.06, -7.89, -7.47, -7.89, -8.38, -8.38, -9.39, -8.45, -8.77, -8.8, -8.49, -7.6, -8.49, -9.24, -9.66, -11.5, -13.65, -12.3, -11.44, -8.79, -7.27, -6.53, -5.36, -3.6, -1.96, -1.03, 0.0, 0.0, 0.0, 0.0, 0.0, 0.0, 0.0, 0.0, 0.0, 0.0, -0.96, -1.05, -0.96, -0.96, -1.05, -0.96, -1.84, -2.16, -2.16, -1.84, -1.98, -2.99, -4.29, -6.26, -6.26, -5.36, -4.82, -3.35, -3.2, -3.58, -3.9, -4.02, -3.72, -3.35, -3.35, -3.72, -1.08, 1.08, 4.98, 6.17, 6.26, 6.26, 6.17, 6.0, 4.74, 3.72, 1.99, 4.02, 4.34, -9.42, -9.42, -9.13, -9.13, -9.13, -8.85, -8.56, -8.56, -8.24, -7.33, -6.98, -5.72, -5.9, -4.4, -3.53, -4.25, -4.44, -5.35, -6.57, -6.71, -6.14, -7.12, -7.54, -8.29, -8.82, -8.38, -8.38, -8.38, -8.82, -8.44, -9.39, -8.56, -8.21, -7.2, -7.11, -7.15, -6.64, -7.47, -10.2, -11.59, -12.27, -10.84, -10.46, -9.32, -7.9, -5.1, -4.26, -2.67, -1.84, -1.52, 0.0, 0.0, 0.0, 0.0, 0.0, 0.0, 0.0, 0.0, 0.0, 0.0, 0.0, 0.0, 0.0, -1.05, -0.96, -0.96, -1.05, -1.99, -2.16, -1.05, 0.0, 0.0, -3.39, -4.77, -4.82, -4.92, -4.47, -3.82, -3.82, -4.47, -4.47, -3.72, -2.84, -1.6, -1.13, 1.13, 4.29, 5.94, 5.73, 5.73, 5.29, 5.09, 5.58, 4.58, 2.82, 1.99, 4.02, 4.77, -9.42, -9.42, -9.13, -9.13, -9.13, -9.13, -8.56, -8.56, -8.24, -7.93, -7.28, -6.32, -6.48, -5.7, -5.92, -4.71, -5.09, -4.87, -5.86, -6.7, -5.86, -3.88, -5.37, -6.94, -5.36, -5.36, -6.26, -7.45, -8.82, -9.29, -9.83, -10.65, -10.46, -8.18, -5.51, -3.58, 0.0, 2.68, -5.51, -10.73, -11.18, -10.2, -9.89, -8.4, -7.28, -5.69, -4.58, -3.55, -3.0, -2.8, -1.08, -1.08, 0.0, -1.05, -0.96, -1.03, -0.89, -0.95, -0.89, 0.0, 0.0, 0.0, 0.0, 0.0, 0.0, 0.0, -0.96, -1.05, -0.96, 0.0, 1.08, 3.6, 2.8, -0.0, -1.6, -2.97, -4.47, -4.92, -4.47, -4.02, -3.47, -3.13, -1.2, 0.0, 0.99, 2.84, 3.83, 4.98, 4.98, 5.26, 4.57, 4.22, 3.91, 3.55, 2.82, 3.22, 4.34, 4.92, -9.42, -9.42, -9.13, -9.13, -9.13, -9.46, -8.87, -8.56, -8.56, -8.24, -7.86, -7.73, -9.66, -8.73, -8.35, -7.9, -7.26, -6.84, -6.45, -6.67, -6.16, -5.2, -4.6, -2.09, 1.99, 3.22, 2.2, -4.47, -8.05, -9.83, -10.28, -9.74, -6.9, -1.98, 0.0, 3.58, 6.51, 6.8, 4.11, -5.21, -8.05, -8.38, -8.48, -7.47, -5.72, -3.22, -1.63, -1.73, -1.03, -1.14, -1.84, -2.2, -1.99, -2.16, -1.84, -1.72, -1.84, -1.84, -1.84, -0.89, -0.96, -0.96, -0.88, -1.05, 0.0, 0.0, -0.96, -1.05, 0.0, 0.0, 1.08, 2.53, 4.02, 3.39, 1.9, 0.0, -3.13, -4.02, -4.02, -2.98, -3.72, -3.13, -2.24, 0.0, 2.21, 2.98, 2.84, 4.0, 3.6, 4.0, 3.58, 3.48, 3.35, 3.72, 3.72, 3.63, 4.98, 5.7, -9.42, -9.42, -9.13, -9.13, -9.13, -9.46, -8.87, -8.56, -8.56, -8.53, -8.5, -9.37, -8.45, -8.08, -9.76, -9.43, -10.18, -9.76, -9.66, -8.15, -6.58, -4.2, 0.0, 4.56, 6.52, 5.06, 5.06, 3.47, -1.84, -6.94, -6.26, 0.0, 4.92, 6.0, 6.08, 5.94, 5.81, 5.73, 6.71, 4.92, 2.24, -2.53, -2.99, -2.8, -1.03, 0.0, 0.89, 1.96, 0.89, 0.0, -0.89, -2.99, -2.99, -2.99, -2.8, -2.64, -2.82, -2.82, -2.82, -3.0, -2.8, -2.99, -2.8, -2.2, -0.96, -0.96, -1.03, -0.88, 0.0, 0.0, 0.0, 0.99, 2.4, 2.24, 1.79, 0.0, 0.0, 0.0, -2.24, -2.21, -2.84, -2.98, -2.24, 0.0, 0.0, 1.4, 1.74, 1.98, 2.53, 1.98, 1.8, 2.68, 3.49, 3.91, 3.72, 4.19, 5.24, 6.0, -9.42, -9.42, -9.13, -9.13, -9.46, -9.46, -9.17, -8.87, -8.56, -8.85, -8.53, -9.72, -9.17, -7.95, -8.72, -8.31, -9.16, -5.49, -4.94, -3.73, -2.0, 2.8, 4.77, 5.73, 6.26, 5.36, 4.92, 5.36, 5.09, 3.16, 4.47, 5.81, 6.26, 5.7, 4.98, 4.84, 5.94, 6.4, 5.6, 5.15, 4.74, 2.8, 1.03, 0.0, 0.0, 1.84, 2.82, 1.84, 0.94, 0.0, -0.94, -3.0, -3.91, -4.74, -5.06, -4.87, -4.68, -4.42, -4.58, -4.58, -4.74, -3.91, -3.79, -3.48, -2.95, -2.16, -1.98, -1.84, -1.99, -1.99, -1.08, -0.99, 0.0, 0.0, -1.58, -1.58, 0.0, 0.0, 0.0, -0.0, -2.21, -2.98, -3.47, -2.68, -1.58, -1.2, 0.0, 0.0, 0.0, 0.0, 0.87, 2.0, 2.95, 3.63, 3.72, 3.97, 5.06, 5.49, -9.42, -9.42, -9.13, -9.13, -9.46, -9.46, -9.17, -9.17, -8.87, -8.56, -9.13, -9.46, -9.77, -8.87, -6.92, -5.64, -3.78, -3.2, -3.0, -1.57, 0.63, 2.0, 2.15, 6.0, 5.21, 4.11, 3.22, 1.24, 4.4, 5.81, 5.81, 5.73, 5.7, 5.26, 4.98, 4.98, 4.81, 5.37, 5.37, 4.42, 3.77, 3.55, 2.64, 1.4, 1.63, 1.84, 1.4, 0.0, 0.0, -2.99, -2.82, -3.72, -4.74, -5.49, -6.18, -6.11, -6.18, -6.18, -5.95, -4.65, -2.48, -1.41, -3.16, -4.29, -4.11, -3.91, -3.72, -3.91, -4.89, -4.11, -3.48, -2.84, -2.98, -3.35, -3.82, -3.39, -2.8, 0.0, 0.0, 1.79, 0.0, -2.68, -3.58, -4.02, -3.58, -3.39, -2.98, -1.98, -0.99, 0.0, 0.0, 0.99, 1.8, 1.99, 1.98, 3.0, 4.58, 4.58, -9.42, -9.42, -9.13, -9.46, -9.46, -9.46, -9.17, -9.17, -9.17, -9.17, -9.17, -9.17, -9.77, -9.5, -8.18, -6.36, -4.74, -2.8, -2.23, -1.06, 0.0, 0.6, 1.49, 2.23, 1.8, 1.27, 1.13, 1.16, 2.21, 2.4, 4.92, 5.51, 5.51, 5.51, 5.51, 5.6, 4.81, 4.58, 3.55, 2.82, 2.82, 1.84, 0.96, 0.96, 1.7, 2.98, 1.98, 0.0, -1.49, -2.82, -3.47, -4.29, -4.11, -2.95, -3.47, -1.98, -4.43, -7.15, -5.26, -0.0, 4.92, 4.4, 1.08, -2.2, -3.91, -3.72, -4.29, -5.58, -6.36, -5.94, -5.51, -5.4, -4.98, -5.26, -4.47, -4.02, -3.58, -2.8, -1.26, 0.0, 0.0, 0.0, 0.0, 0.0, -4.02, -4.34, -4.47, -3.47, -2.8, -1.2, -1.0, 0.0, 0.0, 0.0, 1.05, 2.8, 3.72, 3.72, -9.42, -9.42, -9.13, -9.46, -9.46, -9.17, -9.17, -9.17, -9.17, -9.17, -9.17, -9.48, -9.19, -9.21, -9.22, -8.16, -6.33, -5.18, -3.39, -2.26, -1.63, -1.05, 0.0, 0.63, 0.57, 0.54, 0.54, 0.71, 1.24, 2.4, 3.13, 5.73, 6.0, 5.2, 5.6, 5.21, 4.01, 3.55, 1.96, 0.89, 0.83, 0.89, 0.0, 1.7, 3.79, 4.84, 3.79, 3.0, 0.0, 0.0, 0.0, -1.98, 0.0, 4.8, 5.51, 3.48, 1.98, -4.47, -1.98, 4.89, 7.55, 7.94, 6.8, 3.47, 0.0, -1.98, -2.8, -4.54, -6.94, -6.26, -6.26, -5.81, -5.26, -3.82, -1.6, -1.4, -3.2, -2.53, -2.8, -3.13, -2.21, 0.0, 0.0, 0.0, 0.0, -1.9, -3.58, -3.82, -2.68, -2.4, -2.4, -2.21, -1.2, 0.0, 0.0, 1.05, 1.98, 2.8, -9.42, -9.13, -9.46, -9.46, -9.46, -9.17, -9.17, -9.17, -9.17, -9.17, -9.48, -9.19, -9.19, -9.21, -9.5, -8.83, -7.48, -6.33, -5.18, -4.03, -3.47, -2.17, -1.67, 0.0, 0.0, 0.0, 0.0, 0.45, 0.89, 1.79, 2.63, 3.32, 5.6, 5.6, 6.0, 6.52, 5.03, 2.82, 1.32, 0.0, 0.0, 0.0, 1.41, 3.22, 4.84, 5.64, 6.07, 4.43, 3.0, 3.0, 3.2, 3.47, 6.51, 7.15, 6.51, 5.58, 4.74, 2.53, 3.13, 6.94, 7.15, 7.15, 6.94, 6.4, 5.58, 3.47, 1.63, 0.0, -4.11, -6.94, -5.6, -3.22, -0.0, 2.2, 4.4, 3.82, -0.0, -1.4, -2.8, -3.58, -3.39, -3.2, -1.58, 0.0, 0.0, 1.6, 0.0, -2.21, -2.4, -3.13, -3.39, -3.13, -2.68, -1.0, 0.0, 1.05, 1.14, 1.14, -9.66, -9.46, -9.46, -9.46, -9.46, -9.17, -9.17, -9.17, -9.17, -9.48, -9.19, -9.19, -9.5, -9.21, -9.21, -8.85, -8.16, -7.03, -6.36, -5.21, -4.1, -3.37, -2.3, -1.12, 0.0, 0.0, 0.55, 0.57, 1.13, 1.16, 1.88, 2.21, 2.51, 4.43, 6.0, 5.46, 4.58, 1.84, 0.0, 0.0, 0.0, 1.99, 3.47, 4.43, 4.84, 6.07, 6.07, 4.84, 4.84, 4.43, 4.43, 5.58, 6.0, 5.21, 4.84, 3.22, 3.47, 4.43, 6.4, 7.06, 6.02, 6.07, 5.21, 5.21, 5.58, 5.58, 4.11, 4.83, 0.0, -6.26, -1.99, 1.84, 4.89, 6.45, 6.71, 6.17, 4.47, 0.0, -3.13, -4.02, -4.47, -4.02, -4.02, -3.13, -2.68, 0.0, 2.84, 1.9, 0.0, 0.0, -2.68, -2.97, -2.24, -0.99, -0.87, 0.0, 0.0, 0.0, -9.66, -10.01, -9.46, -9.46, -9.46, -9.17, -9.17, -9.17, -9.48, -9.48, -9.19, -9.19, -9.5, -9.21, -9.21, -8.58, -7.93, -7.76, -6.4, -5.73, -4.62, -3.5, -2.77, -1.12, -0.54, 0.0, 0.0, 0.0, 0.0, 0.0, 0.0, 0.51, 1.88, 4.84, 5.2, 5.75, 5.21, 3.47, 1.7, 2.2, 3.79, 4.29, 6.0, 4.98, 6.0, 6.58, 6.0, 5.21, 4.84, 4.11, 4.11, 4.84, 4.84, 4.11, 3.47, 2.8, 3.0, 4.02, 5.72, 5.72, 5.72, 5.21, 3.22, 3.22, 3.47, 3.22, 3.72, 3.2, 1.73, 0.0, 2.8, 5.15, 6.88, 7.15, 7.54, 6.99, 5.58, 2.84, -1.9, -4.02, -4.92, -4.92, -4.77, -3.47, -3.58, -3.13, 0.0, 0.0, 1.13, 2.21, -1.58, -2.98, -2.68, -1.2, -1.13, -0.99, 0.0, 0.0, -9.66, -10.01, -9.72, -9.46, -9.46, -9.17, -9.17, -9.48, -9.48, -9.19, -9.19, -9.5, -9.5, -9.21, -8.87, -8.22, -8.2, -7.76, -6.43, -5.11, -3.44, -2.82, -2.23, -1.16, -0.59, -0.55, -1.11, -1.14, -0.56, -0.59, -0.59, 0.0, 0.71, 2.4, 3.39, 5.29, 5.36, 5.36, 5.51, 5.51, 6.07, 6.51, 6.0, 6.0, 6.64, 6.52, 5.72, 4.74, 3.47, 3.22, 2.98, 3.79, 2.98, 3.22, 2.8, 1.63, 3.0, 4.02, 4.02, 4.74, 4.02, 2.8, 3.47, 1.41, 0.0, 0.0, 1.05, 1.63, 3.2, 4.43, 6.71, 6.17, 6.71, 7.15, 6.88, 6.21, 5.95, 4.89, 2.84, 0.0, -2.68, -2.53, -3.16, -2.97, -3.58, -3.2, -2.21, 0.0, 1.13, 2.48, 1.9, -3.13, -3.13, -1.58, 0.0, 0.0, 0.0, 0.0, -9.66, -10.01, -10.01, -9.72, -9.46, -9.46, -9.17, -9.48, -9.48, -9.19, -9.19, -9.5, -9.21, -9.21, -9.21, -10.05, -8.22, -8.22, -6.27, -4.48, -3.56, -3.56, -4.05, -4.3, -3.36, -3.61, -2.2, -1.84, 0.0, 0.0, -0.95, -0.6, 0.0, 1.26, 2.12, 2.24, 2.24, 2.17, 4.34, 5.51, 4.57, 4.98, 5.21, 6.0, 6.08, 5.37, 3.91, 2.66, 3.0, 2.8, 3.22, 2.98, 1.7, 1.7, 1.52, 1.52, 2.8, 3.0, 3.0, 3.0, 1.52, 1.52, 1.52, 0.0, 0.0, 0.0, 0.0, 0.0, 1.98, 4.83, 5.69, 5.49, 5.49, 5.58, 5.58, 5.6, 6.0, 6.0, 5.6, 4.8, 3.82, 1.41, -0.0, -1.2, -2.21, -2.68, 0.0, 0.0, 1.9, 2.53, 2.48, 0.0, -2.68, 0.0, 0.0, 0.0, 0.0, 0.0, -9.66, -9.66, -10.01, -9.72, -9.46, -9.46, -9.17, -9.48, -9.48, -9.19, -9.19, -9.5, -9.21, -9.21, -9.5, -8.59, -8.23, -8.24, -8.18, -6.43, -6.6, -5.8, -6.56, -7.51, -6.98, -5.24, -4.4, -0.0, 1.24, 1.26, -0.0, 0.0, 0.0, 0.6, 0.95, 1.2, 1.34, 1.7, 1.7, 1.86, 2.15, 2.5, 2.53, 2.84, 3.15, 3.91, 2.82, 2.66, 1.63, 2.8, 3.22, 3.22, 3.22, 3.22, 1.99, 1.84, 3.0, 1.84, 1.72, 0.0, 0.0, 0.0, 0.0, 0.0, 0.0, 0.0, 0.0, 0.0, 1.96, 2.67, 2.57, 2.47, 1.68, 1.84, 1.99, 4.4, 5.26, 6.17, 6.45, 6.17, 5.81, 5.26, 3.48, 2.23, 1.6, -0.0, -0.0, -0.0, 0.0, 0.0, 1.27, 2.53, 2.68, 2.21, 2.68, 3.2, 2.21, 2.21, -9.94, -9.66, -9.66, -10.01, -9.72, -9.46, -9.17, -9.48, -9.48, -9.19, -9.19, -9.5, -9.21, -9.21, -9.5, -9.21, -8.87, -7.95, -8.22, -9.7, -9.6, -6.7, -7.3, -7.27, -6.06, -3.22, -1.0, -0.0, 1.58, 1.26, 0.89, 0.0, 0.0, 0.0, 0.6, 0.6, 0.6, 0.95, 1.2, 1.26, 1.58, 1.9, 2.21, 2.23, 2.86, 3.91, 2.82, 1.4, 2.8, 3.22, 4.11, 3.22, 3.22, 3.22, 3.47, 2.99, 2.64, 1.52, 0.0, 0.0, 0.0, 0.0, 0.0, 0.0, 0.0, 0.0, 0.0, 0.96, 0.95, 1.84, 1.75, 0.0, -0.85, -1.84, 0.0, 3.13, 4.47, 5.81, 6.17, 6.36, 5.94, 6.17, 5.36, 3.6, 3.35, 1.6, -0.0, -0.0, -0.0, 0.0, 0.0, 3.2, 4.02, 3.39, 3.13, 2.97, 1.2, 1.2, -9.94, -9.66, -9.66, -9.66, -9.72, -9.46, -9.17, -9.48, -9.48, -9.19, -9.19, -9.5, -9.21, -9.21, -9.5, -9.5, -8.86, -8.24, -8.58, -9.19, -7.61, -5.09, -5.06, -5.65, -5.71, -4.05, -1.67, 0.0, 0.0, 0.45, 0.89, 0.63, 0.0, 0.0, 0.0, 0.0, 0.0, 0.57, 0.8, 1.24, 1.58, 1.9, 2.21, 2.53, 2.84, 3.12, 2.82, 1.63, 3.22, 5.21, 5.21, 4.84, 3.22, 3.22, 3.47, 3.0, 2.64, 1.84, 0.0, -2.66, -2.8, -1.98, -1.84, -1.84, -1.05, 0.0, 0.0, 0.0, 1.03, 1.58, 2.69, 0.0, -3.48, -4.92, 1.6, 2.21, 3.39, 4.47, 4.92, 5.75, 6.36, 6.02, 6.17, 5.81, 5.36, 4.92, 4.92, 4.34, 2.84, -0.0, 1.58, 2.68, 3.13, 3.13, 2.68, 1.9, 1.6, 1.6, -9.94, -9.94, -9.94, -9.66, -9.72, -9.46, -9.46, -9.48, -9.48, -9.48, -9.19, -9.5, -9.21, -9.21, -9.5, -9.21, -9.21, -8.87, -8.87, -8.87, -6.94, -4.63, -3.45, -3.83, -4.45, -4.47, -3.18, -2.14, -1.11, -0.54, 0.0, 0.0, 0.0, 0.0, 0.0, 0.0, 0.0, 0.0, 0.54, 1.0, 1.2, 1.61, 1.88, 2.21, 3.14, 3.16, 3.0, 4.11, 6.07, 6.51, 6.0, 5.21, 4.43, 3.47, 3.47, 2.8, 2.8, 2.82, 1.49, -1.99, -4.89, -4.43, -3.91, -2.99, -2.2, 0.0, 0.0, 0.0, 0.96, 1.03, 2.82, 2.6, -3.0, -1.84, -0.0, -0.0, 1.2, 2.6, 4.38, 5.36, 5.75, 6.64, 6.71, 6.64, 6.64, 6.64, 6.71, 6.71, 5.4, 2.2, 0.98, 1.2, 2.4, 2.24, 2.24, 1.58, 1.2, 1.2, -9.94, -9.94, -9.94, -9.66, -9.72, -9.46, -9.46, -9.48, -9.48, -9.48, -9.19, -9.5, -9.21, -9.21, -9.21, -9.21, -9.21, -8.87, -8.87, -8.23, -7.59, -5.64, -3.97, -3.2, -3.47, -3.85, -3.84, -2.75, -2.16, -1.58, -1.0, -0.71, 0.0, 0.0, 0.0, 0.0, 0.0, 0.0, 0.0, 0.53, 1.2, 1.2, 1.61, 1.61, 2.5, 2.68, 4.84, 6.07, 6.58, 7.01, 6.64, 4.74, 4.43, 4.43, 3.47, 2.8, 1.84, 3.0, 3.4, 0.0, -4.98, -5.94, -4.29, -2.48, -1.6, 0.0, 0.98, 0.0, 0.0, 0.0, 0.0, 3.16, -1.98, -2.99, -2.98, -0.0, -0.0, 2.2, 4.46, 4.85, 5.36, 5.81, 5.81, 6.21, 7.08, 7.08, 7.1, 7.1, 6.26, 4.24, -0.0, -0.0, -0.0, 0.0, 1.79, 0.0, 0.0, 0.0, -9.94, -9.94, -9.94, -9.66, -9.66, -9.66, -9.46, -9.17, -9.48, -9.48, -9.19, -9.5, -9.5, -9.21, -9.5, -9.21, -8.86, -8.87, -8.87, -8.59, -8.23, -6.94, -5.64, -3.94, -3.37, -3.21, -3.45, -2.77, -2.77, -2.36, -1.76, -1.13, -0.53, 0.0, 0.0, 0.0, 0.0, 0.0, 0.0, 0.0, 0.61, 1.16, 1.16, 1.2, 1.24, 1.86, 2.12, 2.63, 3.53, 3.53, 3.87, 6.0, 5.21, 5.21, 4.43, 3.0, 3.0, 2.16, 3.0, 1.84, -3.16, -4.34, -3.82, 0.0, 2.8, 3.35, 2.95, 1.99, 0.0, 0.0, 0.0, 0.0, -2.2, -4.19, -2.99, -1.19, -0.0, 2.0, 3.22, 4.98, 5.51, 5.75, 5.81, 6.26, 6.64, 7.08, 7.1, 6.94, 6.88, 5.09, 3.13, -0.98, -0.99, -0.0, 0.0, 0.0, 0.0, 0.0, -9.59, -9.59, -9.94, -9.66, -9.66, -9.66, -9.46, -9.46, -9.48, -9.48, -9.48, -9.5, -9.5, -9.21, -9.5, -9.21, -8.87, -8.87, -8.87, -8.23, -7.96, -7.59, -6.94, -5.64, -4.6, -3.35, -2.75, -2.77, -2.14, -2.32, -2.36, -1.73, -1.11, -0.99, -0.53, 0.0, 0.0, 0.0, 0.0, 0.0, 0.0, 0.51, 0.61, 0.61, 0.65, 0.8, 1.2, 1.79, 2.24, 2.68, 3.53, 3.39, 5.6, 6.0, 5.72, 4.29, 3.0, 2.8, 3.0, 3.2, 1.98, 0.0, 0.0, 2.68, 4.47, 4.98, 4.11, 3.22, 0.0, -0.95, -0.89, 0.0, -2.21, -4.11, -4.74, -3.22, -0.0, 0.81, 2.99, 4.43, 4.89, 5.2, 5.75, 5.81, 6.26, 7.15, 6.94, 7.37, 6.88, 6.07, 5.94, -0.0, -0.87, -0.0, -0.0, 0.0, 0.0, 0.0, -9.59, -9.59, -9.94, -9.94, -9.66, -9.42, -9.13, -9.46, -9.17, -9.48, -9.48, -9.19, -9.5, -9.21, -9.21, -8.87, -8.87, -8.59, -8.59, -8.23, -7.96, -7.6, -7.22, -6.29, -5.67, -4.6, -3.52, -2.73, -2.75, -2.14, -2.32, -2.32, -2.16, -1.7, -1.55, -1.08, -1.11, -0.59, 0.0, 0.0, 0.0, 0.0, 0.0, 0.0, 0.0, 0.0, 0.0, 0.89, 1.79, 2.24, 2.68, 3.13, 3.09, 3.39, 4.98, 4.43, 4.02, 4.43, 3.63, 2.8, 1.49, 1.03, 1.84, 4.34, 6.58, 5.94, 5.24, 1.84, 0.95, 0.0, -0.89, -0.84, 0.0, -2.53, -4.4, -3.22, -1.98, -0.0, 1.98, 3.72, 4.43, 5.2, 5.31, 5.75, 6.2, 6.26, 6.94, 6.94, 7.08, 7.1, 6.51, 6.02, -0.0, -0.0, -0.0, -0.0, 0.0, 0.0, -9.59, -9.59, -9.59, -9.94, -9.66, -9.42, -9.42, -9.13, -9.46, -9.17, -9.48, -9.19, -9.5, -9.21, -9.21, -8.87, -8.59, -8.59, -8.23, -7.96, -8.24, -7.6, -7.33, -6.96, -6.31, -5.67, -4.6, -4.6, -3.97, -3.35, -2.75, -2.29, -2.14, -1.65, -1.67, -1.7, -1.73, -1.23, -0.57, -0.57, 0.0, 0.0, 0.0, 0.0, -1.13, -1.9, -1.34, 0.63, 1.7, 2.24, 2.24, 2.68, 2.63, 2.91, 3.07, 4.54, 4.74, 4.74, 4.89, 3.47, 0.95, 0.89, 1.98, 5.6, 6.57, 6.9, 3.55, 1.96, 0.0, 0.0, 0.0, -0.89, -0.89, 0.0, 0.0, 3.13, -0.0, -1.03, -0.0, 1.98, 2.8, 3.72, 3.87, 5.29, 5.29, 5.36, 6.2, 6.64, 7.15, 7.15, 7.08, 6.88, 4.92, 0.99, -0.0, -0.0, 0.0, 0.0, -9.59, -9.59, -9.59, -9.37, -9.42, -9.42, -9.42, -9.13, -9.13, -9.46, -9.48, -9.19, -9.19, -9.5, -9.21, -8.87, -8.59, -8.23, -8.23, -7.96, -7.6, -7.6, -7.33, -6.7, -6.31, -6.33, -5.92, -5.26, -4.6, -3.97, -3.35, -2.92, -2.12, -2.29, -1.76, -2.14, -1.67, -1.55, -1.08, -0.63, -0.57, 0.0, 0.0, 0.0, 0.0, -1.86, -2.6, -0.0, 2.4, 2.24, 2.24, 2.17, 2.6, 2.4, 2.5, 3.07, 4.43, 5.36, 4.89, 3.47, 1.84, 0.0, 2.8, 6.32, 7.2, 4.87, 3.77, 0.89, -0.89, -1.84, -1.75, -1.75, -1.75, -0.94, 2.16, 5.73, 4.77, -0.0, -0.96, -0.0, 1.84, 2.84, 3.07, 3.53, 4.92, 4.92, 5.36, 6.26, 6.26, 6.26, 6.17, 5.94, 5.43, 3.58, -0.0, -0.0, -1.79, -1.79, -9.86, -9.86, -9.37, -9.37, -9.37, -9.08, -9.42, -9.13, -9.13, -9.46, -9.17, -9.48, -9.19, -9.19, -9.19, -8.87, -8.59, -8.23, -7.96, -8.24, -7.6, -7.33, -7.24, -6.97, -6.33, -6.33, -5.69, -5.69, -5.04, -4.63, -3.97, -3.35, -2.89, -2.4, -2.26, -2.26, -2.29, -1.67, -1.7, -1.19, -1.08, -0.57, -0.57, 0.0, 0.57, -0.96, -3.39, -0.0, 3.07, 2.68, 2.17, 2.12, 2.0, 2.4, 2.15, 2.5, 2.5, 2.79, 4.11, 3.91, 2.12, 1.84, 4.58, 6.18, 4.58, 4.58, 3.55, 2.99, -0.89, -3.77, -4.26, -2.67, -1.84, -1.03, 1.6, 5.7, 6.2, 4.77, -0.0, -1.05, -0.0, 1.33, 1.88, 2.8, 3.13, 4.47, 4.47, 3.95, 4.02, 4.02, 4.38, 4.98, 4.19, 4.98, 2.68, -0.0, -1.79, -1.79, -9.3, -9.3, -9.3, -9.37, -9.37, -9.08, -9.08, -9.42, -9.13, -9.13, -9.17, -9.17, -9.19, -9.19, -8.87, -8.87, -8.58, -8.24, -8.24, -8.24, -7.6, -7.61, -7.33, -6.97, -6.71, -6.33, -6.08, -5.7, -5.29, -5.29, -4.63, -4.42, -4.0, -3.56, -2.89, -2.92, -2.26, -2.29, -2.16, -1.7, -1.19, -1.08, -1.08, -0.57, 0.0, -0.96, 0.0, 1.86, 2.91, 2.91, 2.4, 1.86, 1.58, 1.9, 1.9, 2.21, 2.21, 2.21, 2.53, 3.22, 2.8, 2.82, 4.42, 3.77, 2.82, 2.64, 2.8, 2.82, 0.0, -3.0, -3.91, -1.03, 0.0, 0.0, 2.68, 3.79, 5.4, 5.29, 3.72, -0.0, -0.88, -0.0, -0.0, 1.24, 1.7, 2.24, 1.9, 2.23, 2.21, 2.68, 3.13, 3.9, 4.22, 3.84, 2.97, 0.0, 0.0, 0.0, -9.3, -9.3, -9.3, -9.02, -9.37, -9.37, -9.08, -9.08, -9.13, -9.13, -9.17, -9.17, -9.17, -9.19, -8.58, -8.58, -8.58, -8.24, -8.24, -7.96, -7.6, -7.61, -7.33, -6.97, -6.71, -6.33, -6.34, -5.7, -6.7, -5.08, -5.72, -5.32, -4.66, -4.0, -3.35, -3.37, -2.92, -2.96, -2.29, -2.16, -1.7, -1.7, -1.19, -1.08, -1.19, -0.59, 0.53, 2.4, 2.48, 2.23, 1.61, 1.24, 1.2, 1.2, 1.4, 1.88, 1.88, 1.88, 1.61, 1.61, 2.6, 2.82, 3.4, 2.26, 1.84, 0.89, 0.0, 0.0, 1.4, 0.0, 0.96, 2.8, 3.15, 1.4, 0.0, 2.2, 2.76, 3.93, 3.93, 0.88, -0.88, -1.66, -0.98, -0.0, -0.0, 0.0, 0.0, 0.0, 0.0, 1.58, 2.4, 3.58, 4.0, 3.93, 3.39, 0.0, 0.0, 0.0, -9.3, -9.3, -9.3, -9.3, -9.02, -9.37, -9.08, -9.08, -9.13, -9.13, -9.46, -9.17, -9.17, -9.17, -8.87, -8.58, -8.58, -8.24, -7.96, -7.96, -8.24, -7.61, -7.33, -6.97, -6.71, -6.98, -6.34, -6.34, -5.7, -6.7, -5.1, -5.44, -5.09, -4.69, -4.44, -4.03, -3.37, -3.4, -2.96, -3.0, -2.32, -2.36, -1.7, -1.73, -1.19, -0.59, 0.0, 0.54, 1.23, 1.13, 1.0, 1.2, 0.65, 1.2, 1.16, 1.16, 1.61, 1.88, 1.88, 1.16, 1.8, 2.82, 2.54, 1.96, 0.89, 0.0, 0.0, 0.0, 0.0, 1.4, 3.6, 4.26, 2.83, 0.85, 0.0, 2.21, 0.96, 1.05, 1.66, -0.0, -0.79, -1.8, -1.98, -1.13, -0.57, -0.89, -0.71, -1.13, 0.0, 2.21, 3.2, 2.97, 2.97, 3.22, 2.98, 2.24, -0.0, -0.0, -9.3, -9.3, -9.3, -9.3, -9.02, -9.02, -9.37, -9.08, -9.13, -9.13, -9.46, -9.17, -9.17, -9.17, -8.87, -8.87, -8.56, -8.56, -8.24, -8.24, -8.24, -7.61, -7.61, -7.33, -6.98, -6.98, -6.34, -6.34, -6.34, -5.72, -4.46, -4.47, -5.08, -5.1, -4.45, -4.45, -4.03, -3.4, -3.42, -2.77, -3.0, -2.32, -2.16, -1.7, -1.7, -1.07, -0.54, 0.0, 0.0, 0.0, 0.61, 0.61, 0.61, 0.61, 0.61, 1.16, 1.16, 1.84, 1.84, 1.84, 3.0, 2.66, 2.66, 1.4, 0.89, 0.0, 0.0, 0.0, 0.0, 1.4, 2.83, 4.0, 1.4, 0.0, 0.0, 1.27, -0.0, -0.0, -0.0, -0.0, -0.0, -0.99, -0.99, -0.99, -0.99, -1.7, -2.4, -2.23, -0.96, 2.21, 3.2, 2.53, 2.68, 2.97, 2.98, 2.24, -0.0, -0.0, -8.94, -8.94, -8.94, -9.3, -9.3, -9.02, -9.37, -9.08, -9.42, -9.13, -9.46, -9.17, -9.17, -9.17, -8.87, -8.56, -8.56, -8.56, -8.24, -8.24, -8.24, -7.95, -7.61, -7.33, -7.26, -6.98, -6.98, -6.34, -6.34, -5.7, -4.44, -3.83, -4.47, -4.75, -4.73, -4.46, -4.71, -4.05, -3.83, -3.42, -2.77, -2.8, -2.32, -2.16, -1.67, -1.7, -1.16, -0.61, 0.0, 0.0, 0.0, 0.0, 0.0, 0.61, 0.61, 0.61, 1.16, 1.33, 1.6, 1.8, 1.8, 2.66, 2.66, 1.4, 1.4, 0.0, 0.89, 0.95, 0.0, 0.89, 1.73, 1.4, 1.47, 0.85, 0.89, 0.89, 0.0, -2.48, -1.05, -0.0, -0.0, -1.2, -1.2, -0.0, -0.99, -2.17, -2.8, -2.95, 0.0, 2.8, 3.2, 2.23, 1.4, 2.24, 2.4, 2.24, -0.0, -0.0, -9.21, -9.21, -8.94, -9.3, -9.3, -9.02, -9.37, -9.08, -9.42, -9.13, -9.13, -9.17, -9.17, -8.56, -8.56, -8.56, -8.56, -8.56, -8.56, -8.24, -7.95, -7.95, -7.95, -7.33, -7.61, -6.98, -6.98, -6.34, -6.34, -6.08, -5.46, -4.44, -4.05, -3.84, -4.47, -4.47, -4.73, -4.46, -4.08, -3.84, -3.42, -3.0, -2.32, -2.32, -2.32, -2.32, -1.84, -1.07, -1.08, -0.57, 0.0, 0.0, 0.0, 0.0, 0.51, 0.51, 0.59, 1.13, 1.13, 1.58, 1.76, 1.94, 1.49, 0.95, 0.89, 1.25, 0.95, 0.89, 0.0, 0.0, 0.0, 0.89, 1.33, 0.89, 0.0, 0.0, -0.94, -3.35, -2.0, -0.88, -1.13, -1.2, -1.2, -0.0, -0.0, -2.24, -1.9, 0.0, 1.6, 3.13, 3.82, 2.48, 1.13, 1.9, 2.24, 1.79, 0.0, 0.0, -9.21, -9.21, -8.94, -8.94, -9.3, -9.02, -9.02, -9.08, -9.08, -9.13, -9.13, -9.13, -9.13, -8.85, -8.85, -8.85, -8.56, -8.56, -8.56, -8.24, -7.95, -7.95, -8.24, -7.61, -7.61, -6.98, -6.98, -6.7, -6.34, -6.08, -5.7, -5.32, -4.69, -4.46, -4.08, -4.08, -4.08, -4.08, -4.08, -3.84, -3.42, -3.45, -2.8, -2.83, -2.36, -2.82, -2.82, -2.4, -1.57, -1.11, -0.59, 0.0, 0.0, 0.0, 0.0, 0.59, 0.59, 1.13, 1.8, 1.76, 1.76, 1.73, 1.49, 0.95, 0.89, 1.32, 0.0, 0.0, 0.0, 0.0, 0.0, 0.0, 0.0, 0.0, 0.0, -0.89, -1.75, -1.99, -1.6, -0.96, -1.8, -2.21, -0.99, -0.0, -0.0, 1.26, 1.79, 1.4, 1.6, 3.58, 4.24, 3.16, 2.48, 1.6, 1.9, 0.0, 0.0, 1.79, -9.21, -9.21, -9.21, -8.94, -9.3, -9.02, -9.02, -9.08, -9.08, -9.13, -9.13, -8.85, -8.85, -8.85, -8.85, -8.85, -8.85, -8.56, -8.56, -8.24, -8.24, -8.24, -8.24, -7.93, -7.61, -7.61, -6.98, -6.98, -6.34, -6.34, -6.35, -5.72, -5.08, -5.09, -4.45, -3.83, -4.08, -3.84, -3.84, -3.84, -4.1, -3.45, -2.8, -2.83, -1.7, -2.84, -3.49, -3.49, -2.48, -1.13, -0.51, 0.0, 0.0, 0.0, 0.0, 0.59, 0.59, 1.13, 1.11, 1.76, 1.76, 1.73, 1.49, 0.95, 0.89, 0.0, 0.0, 0.0, 0.0, 0.0, 0.0, 0.0, 0.0, 0.0, 0.0, -2.67, -3.55, -1.6, -0.0, -0.81, -1.8, -1.98, -0.0, -0.0, -0.0, 0.0, 0.0, 0.0, 1.9, 3.58, 4.0, 3.48, 3.16, 1.6, -0.0, -0.0, 0.0, 0.0, -9.21, -9.21, -9.21, -8.94, -8.94, -9.02, -9.02, -9.08, -9.08, -9.08, -8.53, -8.85, -8.85, -8.85, -8.85, -8.85, -8.85, -8.85, -8.85, -8.24, -8.24, -8.24, -7.93, -7.93, -7.93, -7.61, -7.61, -6.98, -6.98, -6.34, -6.08, -5.98, -5.72, -5.08, -5.09, -4.45, -4.05, -3.83, -4.08, -3.84, -4.1, -3.45, -3.45, -2.32, -1.75, -1.73, -2.84, -3.2, -2.15, -1.2, -0.65, 0.0, 0.0, 0.0, 0.0, 0.59, 0.59, 1.27, 1.11, 1.23, 1.76, 1.73, 1.16, 1.25, 0.0, 0.0, 0.0, 0.0, 0.0, 0.0, 0.0, -0.95, -1.4, 0.0, 0.0, -2.12, -4.4, -2.23, -0.0, -0.88, -0.98, -0.98, -0.87, -0.0, -0.0, -1.79, -1.26, 0.0, 2.68, 3.39, 4.0, 3.48, 2.0, 1.6, -0.0, -0.0, -0.0, 0.0, -9.21, -9.21, -9.21, -8.94, -8.94, -9.3, -8.78, -8.78, -8.82, -8.82, -8.82, -8.53, -8.53, -8.53, -8.53, -8.53, -8.53, -8.53, -8.53, -8.24, -8.24, -8.24, -7.93, -7.93, -7.93, -7.93, -7.61, -7.61, -6.98, -6.34, -6.34, -6.35, -5.72, -5.72, -5.08, -5.09, -4.45, -3.81, -3.83, -4.08, -3.84, -3.85, -3.85, -3.45, -2.96, -2.67, -1.24, -1.79, -1.2, -0.6, 0.0, 0.0, 0.0, 0.0, 0.59, 0.59, 0.59, 1.27, 1.11, 1.23, 1.08, 1.08, 1.4, 1.4, 1.4, 0.0, 0.0, 0.0, 0.0, 0.0, 0.0, -1.73, -2.83, -1.4, 0.0, 0.0, -4.34, -2.8, -0.96, -1.08, -1.6, -1.8, -1.8, -2.21, -2.0, -2.68, -1.9, 0.0, 2.68, 3.82, 4.0, 3.48, 2.0, 1.13, -0.0, 0.0, -0.0, -0.0, -9.21, -9.21, -9.21, -8.94, -8.73, -8.73, -8.78, -8.78, -8.82, -8.82, -8.82, -8.82, -8.82, -8.53, -8.53, -8.53, -8.53, -8.53, -8.53, -8.24, -8.24, -7.93, -8.22, -8.22, -8.22, -7.93, -7.61, -7.61, -6.98, -6.98, -6.34, -6.34, -5.98, -5.72, -5.72, -5.34, -5.09, -4.45, -4.05, -4.05, -4.08, -3.84, -3.85, -3.45, -3.4, -2.26, -0.59, 0.0, 0.0, 0.0, 0.0, 0.0, 0.0, 0.61, 0.59, 0.59, 0.59, 1.11, 1.11, 1.23, 1.08, 1.19, 1.19, 1.25, 1.49, 1.49, 1.4, 0.0, 0.0, 0.0, -0.89, -2.67, -4.2, -2.83, -1.54, 0.0, -2.8, -3.22, -3.22, -3.22, -1.8, -1.8, -2.23, -2.21, -2.68, -3.13, 0.0, 0.0, 2.68, 3.82, 4.0, 4.0, 2.84, 1.6, 0.0, 0.0, 0.0, 0.0, -9.21, -9.21, -9.21, -9.21, -8.73, -8.73, -8.78, -8.78, -8.5, -8.82, -8.82, -8.82, -8.82, -8.82, -8.82, -8.82, -8.53, -8.53, -8.53, -8.24, -7.93, -8.22, -8.22, -8.22, -8.22, -8.22, -7.93, -7.61, -7.32, -6.98, -6.7, -6.34, -6.08, -5.98, -5.72, -5.46, -5.34, -5.09, -4.45, -4.05, -4.05, -4.08, -3.84, -3.68, -3.42, -2.92, -1.18, -0.56, 0.0, 0.0, 0.0, 0.0, 0.0, 0.51, 0.59, 0.59, 0.59, 0.57, 1.11, 1.23, 1.08, 1.19, 1.19, 1.25, 2.82, 2.82, 2.82, 1.4, 0.0, 0.0, -1.73, -3.6, -3.63, -3.49, -2.57, -0.94, 0.0, 0.0, -2.48, -2.99, -2.99, -2.0, -1.98, -2.21, -2.4, -1.79, 0.0, 1.9, 3.13, 3.39, 4.34, 4.34, 3.82, -0.0, 0.0, 0.0, 0.0, 0.0, -8.84, -8.84, -8.84, -9.01, -8.73, -8.73, -8.73, -8.78, -8.78, -8.5, -8.5, -8.5, -8.82, -8.82, -8.5, -8.5, -8.5, -7.93, -8.24, -7.93, -8.22, -8.22, -8.22, -8.22, -8.22, -8.22, -8.22, -7.6, -7.32, -7.32, -6.98, -6.7, -6.34, -6.08, -5.72, -5.72, -5.34, -5.09, -4.69, -4.45, -4.05, -3.83, -4.08, -3.42, -3.42, -2.96, -2.26, -1.73, -0.56, 0.0, 0.0, 0.0, 0.0, 0.0, 0.0, 0.59, 0.59, 0.57, 0.57, 0.63, 1.08, 1.19, 1.07, 1.16, 2.54, 2.54, 2.54, 1.84, 0.0, -0.95, -2.69, -3.6, -4.34, -3.49, -2.47, 0.0, 0.93, 1.84, 0.96, 0.0, -1.41, -2.53, -1.8, -1.74, -1.2, -0.0, 0.0, 1.9, 3.13, 3.2, 4.0, 1.9, -0.0, -0.0, -2.24, -2.68, -2.68, -2.68, -8.84, -8.84, -8.84, -8.65, -9.01, -8.73, -8.73, -8.78, -8.78, -8.78, -8.5, -8.5, -8.5, -8.5, -8.5, -8.5, -8.22, -8.22, -7.93, -7.93, -8.22, -8.22, -8.22, -8.22, -8.22, -8.22, -7.9, -7.6, -7.6, -7.6, -7.27, -6.7, -6.34, -6.34, -6.35, -5.72, -5.46, -5.34, -5.09, -4.45, -4.71, -4.05, -4.08, -3.42, -3.42, -2.96, -2.77, -2.29, -1.76, -1.12, -0.58, -0.59, 0.0, 0.0, 0.0, 0.0, 0.51, 0.57, 0.57, 0.63, 0.55, 1.19, 1.07, 1.16, 1.67, 2.69, 1.32, 0.0, 0.0, -0.89, -2.83, -3.8, -3.45, -2.57, -1.68, 0.0, 0.85, 1.76, 2.47, 3.63, 1.05, -3.2, -1.99, -0.98, -0.99, -0.0, 0.0, 0.0, 2.68, 4.02, 3.58, 0.0, -0.0, -0.0, -2.68, -2.68, -2.68, -2.68, -9.1, -9.1, -8.84, -8.65, -8.65, -8.73, -8.73, -8.45, -8.78, -8.78, -8.78, -8.5, -8.5, -8.5, -8.5, -8.22, -8.22, -8.22, -8.22, -8.22, -8.22, -8.22, -7.9, -7.9, -7.9, -7.9, -7.9, -7.6, -7.6, -7.6, -7.3, -6.98, -6.98, -6.34, -6.35, -5.98, -5.72, -5.72, -5.09, -5.09, -4.71, -4.46, -3.83, -4.08, -3.42, -3.42, -2.77, -2.29, -1.65, -1.8, -1.14, -0.53, -0.54, 0.0, 0.0, 0.0, 0.0, 0.0, 0.57, 0.55, 0.55, 0.61, 1.07, 1.16, 1.7, 1.4, 0.0, 0.0, 0.0, -0.94, -2.54, -2.54, -2.69, -1.75, -0.85, 0.0, 0.0, 0.85, 1.84, 2.57, 2.57, 0.0, -2.2, -0.96, -1.13, -1.2, -0.0, -0.0, 1.9, 2.68, 2.68, 2.68, -0.0, -0.0, 0.0, -2.24, -2.24, -2.24, -9.1, -9.1, -8.84, -8.65, -8.65, -8.73, -8.73, -8.73, -8.45, -8.45, -8.45, -8.78, -8.78, -8.78, -8.5, -8.22, -8.22, -8.22, -8.22, -8.22, -8.22, -7.9, -7.9, -7.9, -7.9, -7.9, -7.9, -7.6, -7.6, -7.6, -7.3, -7.3, -6.98, -6.98, -6.35, -6.35, -5.72, -5.72, -5.34, -5.09, -4.83, -4.71, -4.46, -4.08, -3.42, -3.42, -2.77, -2.29, -2.32, -1.67, -1.67, -1.16, -1.16, -0.54, 0.0, 0.0, 0.0, 0.0, 0.0, 0.55, 0.55, 0.61, 1.07, 1.19, 1.19, 1.32, 1.25, 0.0, 0.0, 0.0, -0.89, -1.75, -1.67, -0.89, -0.89, 0.0, 0.0, 0.0, 0.85, 0.85, 0.89, 0.0, -3.2, -1.7, -0.98, -0.0, -0.0, -0.0, -0.0, 0.0, 2.68, 3.13, 3.13, 2.68, 0.0, 0.0, 0.0, 0.0, -9.1, -9.1, -8.93, -8.65, -8.65, -8.65, -8.73, -8.73, -8.45, -8.45, -8.45, -8.45, -8.45, -8.45, -8.19, -7.9, -7.9, -8.22, -8.22, -8.22, -7.9, -7.9, -7.9, -7.9, -7.9, -7.9, -7.9, -7.9, -7.6, -7.6, -7.3, -7.3, -6.98, -6.98, -6.69, -6.35, -6.35, -5.72, -5.46, -5.34, -5.09, -4.71, -4.46, -4.08, -4.08, -3.42, -3.21, -3.0, -2.32, -2.16, -1.67, -1.7, -1.16, -1.07, -0.55, 0.0, 0.0, 0.0, 0.0, 0.0, 0.61, 0.54, 0.54, 0.61, 0.61, 0.95, 0.95, 1.73, 0.89, 0.0, -1.84, -1.84, -0.85, -0.85, -0.85, -0.85, 0.0, 0.0, 0.0, 0.0, 0.0, 0.0, -2.73, -3.48, -0.81, -0.0, -0.0, -0.0, -0.0, -0.0, -0.0, 3.13, 3.13, 2.68, 0.0, 0.0, 0.0, 0.0, -8.93, -8.55, -8.93, -8.65, -8.65, -8.65, -8.73, -8.73, -8.45, -8.45, -8.45, -8.45, -8.45, -8.45, -8.19, -8.19, -7.9, -7.9, -8.22, -7.9, -7.9, -7.9, -7.9, -8.22, -8.22, -7.9, -7.9, -7.9, -7.6, -7.6, -7.3, -7.3, -7.3, -7.28, -6.97, -6.97, -6.64, -6.08, -5.72, -5.72, -5.09, -5.1, -4.46, -4.73, -4.08, -3.84, -3.42, -3.0, -2.8, -2.32, -1.67, -1.7, -1.16, -0.61, -0.61, -0.55, 0.0, 0.0, 0.0, 0.0, 0.0, 0.54, 0.54, 0.54, 0.0, 0.0, 0.89, 1.84, 0.83, 0.0, -2.67, -3.6, -3.45, -1.84, -0.89, -0.89, 0.0, 0.0, 0.0, 0.0, 0.0, 0.0, -0.95, -3.58, -0.0, -0.0, -0.0, -0.0, -0.0, -0.0, -0.0, -0.0, 0.0, 0.0, 0.0, 0.0, 0.0, 0.0, -8.55, -8.55, -8.55, -8.93, -8.65, -8.65, -8.38, -8.73, -8.73, -8.45, -8.45, -8.45, -8.45, -8.45, -8.19, -8.19, -8.19, -7.9, -7.9, -7.9, -7.9, -7.9, -8.52, -8.52, -8.22, -7.9, -7.9, -7.9, -7.6, -7.6, -7.6, -7.3, -7.59, -6.97, -6.97, -6.97, -6.67, -6.35, -6.35, -6.0, -5.72, -5.09, -5.1, -4.46, -4.08, -4.08, -3.42, -3.45, -3.0, -2.32, -2.16, -1.7, -1.7, -1.19, -0.61, -0.61, 0.0, 0.0, 0.0, 0.0, 0.0, 0.0, 0.0, 0.0, 0.0, 0.0, 0.0, 0.0, 0.0, 0.0, -1.84, -3.77, -4.68, -5.1, -1.84, -0.89, 0.0, 0.0, 0.0, 0.0, 0.0, 0.0, -0.89, -2.68, -0.0, -0.0, -0.0, -0.0, 2.24, 1.9, 1.2, -0.0, -0.0, 0.0, 2.68, 3.13, 3.13, 3.13, -8.55, -8.55, -8.55, -8.55, -8.65, -8.65, -8.65, -8.73, -8.73, -8.45, -8.45, -8.45, -8.45, -8.45, -8.45, -8.19, -8.19, -7.9, -7.9, -7.9, -7.9, -8.19, -8.78, -8.78, -8.19, -8.19, -7.9, -7.9, -7.9, -7.6, -7.6, -7.3, -7.59, -6.97, -6.97, -6.67, -6.67, -6.67, -6.35, -6.35, -5.72, -5.45, -5.36, -4.71, -4.46, -4.08, -3.84, -3.42, -3.45, -2.8, -2.32, -2.36, -1.7, -1.07, -1.19, -0.61, -0.54, 0.0, 0.0, 0.0, 0.0, 0.0, 0.0, 0.0, 0.0, 0.0, 0.0, 0.0, 0.0, 0.95, 0.0, -2.64, -4.58, -5.37, -3.6, -2.83, -0.89, 0.0, 0.0, -0.89, -0.89, -0.89, -1.84, -0.0, -0.0, -0.0, -0.0, -0.0, 1.58, 2.4, 1.9, 1.58, 2.21, 2.21, 3.2, 3.2, 3.2, 3.2, -8.55, -8.55, -8.55, -8.55, -8.93, -8.65, -8.65, -8.38, -8.73, -8.73, -8.45, -8.45, -8.45, -8.45, -8.45, -8.19, -8.19, -8.19, -8.19, -8.19, -8.19, -8.19, -8.45, -8.45, -8.45, -8.19, -8.19, -7.9, -7.9, -7.6, -7.6, -7.3, -7.59, -6.97, -6.97, -6.95, -6.95, -6.65, -6.34, -6.06, -5.72, -5.72, -5.36, -5.1, -4.71, -4.46, -4.08, -3.84, -3.42, -3.0, -2.8, -2.16, -1.7, -1.16, -1.07, -0.54, -0.54, 0.0, 0.0, 0.0, 0.0, 0.0, 0.0, 0.0, 0.0, -0.58, -0.58, 0.0, 0.0, 0.0, 0.0, 0.0, -0.95, -1.03, -2.8, -3.77, -2.67, -1.95, -1.75, -1.75, -1.84, -1.95, -2.21, -0.0, -0.0, -0.0, -0.0, -0.0, 1.0, 1.58, 1.9, 2.4, 3.2, 3.2, 3.6, 3.6, 3.6, 3.6, -8.82, -8.82, -8.55, -8.55, -8.55, -8.65, -8.65, -8.38, -8.73, -8.73, -8.73, -8.73, -8.73, -8.73, -8.45, -8.45, -8.19, -8.19, -8.19, -8.19, -8.19, -8.19, -8.45, -8.45, -8.45, -8.19, -8.19, -7.9, -7.9, -7.6, -7.6, -7.3, -7.27, -6.97, -6.67, -6.95, -6.64, -6.34, -6.34, -6.34, -6.01, -5.72, -5.36, -5.1, -4.71, -4.46, -4.05, -4.08, -3.42, -3.21, -3.0, -2.8, -1.84, -1.7, -1.16, -1.16, -0.59, -0.59, -0.58, 0.0, 0.0, 0.0, 0.0, 0.0, 0.0, -0.58, -0.58, 0.0, 0.0, 0.0, 0.0, 0.0, 0.89, 0.84, 0.0, -0.89, -3.77, -2.83, -2.54, -2.83, -2.67, -1.84, -3.58, -1.03, -0.0, -0.0, -0.0, -0.0, -0.0, 1.2, 1.9, 2.4, 3.2, 3.2, 2.53, 2.8, 2.8, 2.8, -8.82, -8.82, -8.55, -8.55, -8.55, -8.65, -8.65, -8.38, -8.73, -8.73, -8.73, -8.73, -8.73, -8.73, -8.73, -8.19, -8.19, -8.19, -8.19, -8.19, -8.19, -8.19, -8.45, -8.45, -8.19, -8.19, -8.19, -8.19, -7.9, -7.6, -7.3, -7.59, -7.27, -6.97, -6.95, -6.95, -6.34, -6.34, -6.04, -5.72, -5.72, -5.72, -5.36, -5.1, -5.1, -4.71, -4.46, -4.05, -4.08, -3.42, -2.77, -3.0, -2.16, -1.67, -1.16, -1.16, -0.53, -0.58, -0.58, -0.58, -0.58, -0.58, -0.53, -0.53, -0.58, -0.58, -0.53, -0.59, 0.0, -0.89, 0.0, 0.0, 0.0, 0.0, 0.0, 0.0, -1.95, -2.83, -2.69, -2.54, -1.84, 0.0, 0.0, -0.0, -0.0, -0.0, -0.0, -0.0, -0.0, -0.0, 1.2, 1.9, 1.9, 2.21, 2.53, 2.21, 2.21, 2.21, -8.82, -8.82, -8.55, -8.55, -8.55, -8.65, -8.65, -8.65, -8.73, -8.73, -8.73, -8.73, -8.38, -8.38, -8.38, -8.49, -8.19, -8.19, -8.19, -8.19, -8.19, -8.19, -8.19, -8.19, -8.19, -8.19, -8.19, -8.19, -7.9, -7.6, -7.3, -7.59, -6.97, -6.97, -6.95, -6.64, -6.34, -6.34, -6.04, -5.72, -5.72, -5.44, -5.1, -5.1, -5.1, -4.71, -4.46, -4.05, -3.83, -3.64, -3.42, -2.29, -2.32, -1.67, -1.67, -1.14, -1.14, -1.14, -1.12, -1.12, -1.23, -0.58, -0.58, -0.53, -0.58, -0.58, -0.59, -0.59, -0.54, -0.89, -0.89, -0.89, 0.0, 0.0, 0.0, -0.84, -2.67, -2.69, -3.45, -2.69, 0.0, 0.94, 1.01, 2.68, -0.0, -0.0, -0.0, -0.0, -0.0, -0.0, -0.0, -0.0, 1.2, 1.6, 1.6, 2.53, 2.53, 2.53, -8.82, -8.82, -8.55, -8.55, -8.55, -8.65, -8.65, -8.65, -8.73, -8.73, -8.73, -8.38, -8.38, -8.38, -8.15, -8.15, -7.86, -7.86, -7.86, -7.86, -8.19, -8.19, -8.19, -8.19, -8.19, -8.19, -8.19, -8.19, -7.59, -7.3, -7.3, -7.59, -6.97, -6.67, -6.95, -6.34, -6.34, -6.04, -5.72, -6.01, -5.71, -5.71, -5.1, -5.1, -5.1, -4.71, -4.71, -4.05, -3.83, -3.4, -3.42, -2.77, -2.29, -1.8, -1.8, -1.8, -1.8, -1.65, -1.65, -1.65, -1.65, -1.14, -1.14, -1.05, -1.05, -1.14, -1.16, -1.16, -1.16, -1.96, -0.89, 0.0, 0.0, 0.89, 0.0, 0.0, -0.94, -2.67, -3.45, -0.89, 0.0, 1.75, 1.84, 2.2, 1.19, -0.0, -1.05, -0.98, -0.0, -0.0, -0.0, -0.0, 1.4, 2.84, 2.23, 2.53, 2.53, 2.53, -8.82, -8.82, -8.82, -8.55, -8.55, -8.93, -8.65, -8.65, -8.65, -8.38, -8.38, -8.38, -8.38, -8.15, -8.15, -8.15, -8.15, -7.86, -7.86, -7.86, -7.86, -8.19, -8.19, -8.19, -8.19, -7.86, -7.86, -7.86, -7.59, -7.59, -7.59, -7.27, -6.97, -6.67, -6.95, -6.34, -6.34, -6.04, -6.01, -6.01, -5.71, -5.71, -5.38, -5.1, -5.1, -4.71, -4.46, -4.05, -3.83, -3.4, -3.42, -2.77, -2.29, -2.14, -1.65, -1.65, -1.65, -2.29, -2.29, -2.29, -1.65, -1.67, -1.67, -1.26, -1.14, -1.26, -1.16, -1.16, -1.7, -1.67, -1.14, 0.0, 0.83, 0.95, 0.0, 0.0, 0.0, 0.0, -0.94, -0.89, 0.0, 0.89, 0.89, 1.05, 1.27, -0.0, -0.96, -1.83, -0.88, -0.98, -0.0, -0.0, 1.13, 2.23, 2.23, 1.6, 1.6, 1.6, -8.43, -8.43, -8.82, -8.55, -8.55, -8.55, -8.65, -8.65, -8.65, -8.65, -8.65, -8.44, -8.15, -8.15, -8.15, -8.15, -8.15, -8.15, -8.15, -8.15, -7.86, -8.19, -8.19, -8.19, -7.86, -7.86, -7.86, -7.59, -7.59, -7.59, -7.59, -6.97, -6.97, -6.67, -6.95, -6.34, -6.34, -6.04, -6.32, -6.01, -5.71, -5.71, -5.38, -5.38, -5.1, -4.46, -4.46, -4.46, -3.83, -4.08, -3.42, -2.96, -2.77, -2.29, -2.29, -2.29, -2.29, -2.29, -2.29, -2.29, -2.32, -2.32, -2.16, -1.84, -1.84, -1.84, -1.7, -1.7, -1.84, -1.67, -1.67, -0.89, 0.0, 1.49, 0.95, 0.0, 0.0, 0.0, 0.0, 0.0, 0.0, 0.0, 0.0, 0.0, -0.0, -0.95, -1.98, -2.16, -1.7, -1.83, -0.88, -0.0, -0.0, 0.98, 0.87, -0.0, -0.0, -0.0, -8.43, -8.43, -8.82, -8.55, -8.55, -8.55, -8.55, -8.65, -8.65, -8.65, -8.44, -8.08, -8.08, -8.08, -7.81, -8.15, -8.15, -8.15, -8.15, -8.15, -8.15, -8.49, -8.19, -7.86, -7.86, -7.86, -7.59, -7.59, -7.59, -7.59, -7.59, -6.97, -6.97, -6.67, -6.95, -6.34, -6.34, -6.04, -6.32, -6.01, -5.71, -5.71, -5.71, -5.38, -5.1, -5.1, -4.73, -4.73, -4.08, -4.08, -3.42, -3.42, -2.77, -3.0, -3.0, -2.77, -2.77, -2.77, -2.77, -2.77, -3.0, -2.8, -2.36, -2.36, -2.36, -2.36, -1.7, -1.7, -2.18, -2.36, -2.36, -1.16, -0.54, 0.0, 0.0, 0.0, 0.0, 0.0, 0.0, 0.0, -0.89, 0.0, 0.0, 0.0, 0.0, -1.03, -2.82, -3.0, -1.98, -1.84, -1.14, -1.05, -0.0, -0.0, -0.0, -0.0, -0.0, -0.0, -8.43, -8.43, -8.82, -8.55, -8.55, -8.55, -8.55, -8.65, -8.65, -8.65, -8.44, -8.08, -8.08, -8.08, -7.81, -8.15, -8.15, -8.15, -8.15, -8.15, -8.15, -8.49, -8.19, -7.86, -7.86, -7.86, -7.59, -7.59, -7.59, -7.59, -7.59, -6.97, -6.97, -6.67, -6.95, -6.34, -6.34, -6.04, -6.32, -6.01, -5.71, -5.71, -5.71, -5.38, -5.1, -5.1, -4.73, -4.73, -4.08, -4.08, -3.42, -3.42, -2.77, -3.0, -3.0, -2.77, -2.77, -2.77, -2.77, -2.77, -3.0, -2.8, -2.36, -2.36, -2.36, -2.36, -1.7, -1.7, -2.18, -2.36, -2.36, -1.16, -0.54, 0.0, 0.0, 0.0, 0.0, 0.0, 0.0, 0.0, -0.89, -0.84, 0.0, 0.0, 0.0, -0.0, -1.03, -1.96, -1.84, -0.89, -1.03, -0.96, -0.0, -0.0, -0.0, -0.0, -0.0, -0.0]}]